Niobrara River (Nebraska), Verdel (06465500)

StateNebraskaLatestPoor (1230 cfs)
RiverNiobrara RiverRatingObservedEstimated
Updated2026-05-10 12:15 (36 minutes ago)Flood - The river is flooding. Obstacles can be treacherous or deadly. The river should be avoided at this stage for casual trips and definitely for the inexperienced. Trips should be attempted only with protective gear and equipment.Flood(none)3836
Discharge1230 cfs (median: 2200 cfs)High - The river is high and potentially dangerous, especially for the young and / or inexperienced. Normal stream obstacles are sometimes difficult to navigate. Extended distances can be attempted, but canoe travel may not be advisable.High(none)2103
Height3.5 feetGood - Conditions are ideal for a canoe or kayak. Boats typically will drag on fewer than one-quarter of riffles, if at all, and portages are unnecessary or rare. Normal float lengths can be attempted without a problem.Good(none)1825
TrendRising (rising over 24 hours)Low - River is low but can still be floated. Some riffles are okay but most come with significant dragging and might need a portage. Float lengths should be reduced to accommodate low flow, dragging, and portages.Low(none)1325
USGSExternal icon USGS Site (External icon Duck Duck Go Maps)Poor - River is too low to float comfortably. Most or all riffles will drag or must be portaged and some obstacles (such as slick shelf rock) cause undue problems. Avoid the river at this stage for casual paddling trips.Poor(none)741

Trending Data

Plot Image

Trips for Niobrara River (Nebraska), Verdel (06465500)

DateStartEndDistanceConditionDischargeHeightFishingDetails

A total of 0 rows are displayed.

Condition Descriptions

Fishing Conditions

Fish Species

Notes

Classic Trip List

The classic River Trips application is still available for use. It is updated with the new system using a data retrofit. It is no longer maintained. The original River Trips application is no longer updated (as of 1 Dec 2016) but can be checked for errors or for the condition of the data before it was converted to the new system.

Gauge Data Table

ObservationHeightDischargeMaximum
Discharge
Minimum
Discharge
Mean
Discharge
P05P10P20P25P50
(Median)
P75P80P90P95
2026-05-10 12:15 3.50 1230 7590 (1995) 705 (2009) 2390 1100 1260 1580 1790 2200 2730 3050 3750 4840
2026-05-10 11:15 3.48 1180 7590 (1995) 705 (2009) 2390 1100 1260 1580 1790 2200 2730 3050 3750 4840
2026-05-10 10:15 3.44 1080 7590 (1995) 705 (2009) 2390 1100 1260 1580 1790 2200 2730 3050 3750 4840
2026-05-10 09:15 3.44 1080 7590 (1995) 705 (2009) 2390 1100 1260 1580 1790 2200 2730 3050 3750 4840
2026-05-10 08:15 3.46 1130 7590 (1995) 705 (2009) 2390 1100 1260 1580 1790 2200 2730 3050 3750 4840
2026-05-10 07:15 3.48 1180 7590 (1995) 705 (2009) 2390 1100 1260 1580 1790 2200 2730 3050 3750 4840
2026-05-10 06:15 3.45 1110 7590 (1995) 705 (2009) 2390 1100 1260 1580 1790 2200 2730 3050 3750 4840
2026-05-10 05:15 3.44 1080 7590 (1995) 705 (2009) 2390 1100 1260 1580 1790 2200 2730 3050 3750 4840
2026-05-10 04:15 3.43 1060 7590 (1995) 705 (2009) 2390 1100 1260 1580 1790 2200 2730 3050 3750 4840
2026-05-10 03:15 3.41 1020 7590 (1995) 705 (2009) 2390 1100 1260 1580 1790 2200 2730 3050 3750 4840
2026-05-10 02:15 3.40 993 7590 (1995) 705 (2009) 2390 1100 1260 1580 1790 2200 2730 3050 3750 4840
2026-05-10 01:15 3.40 993 7590 (1995) 705 (2009) 2390 1100 1260 1580 1790 2200 2730 3050 3750 4840
2026-05-10 00:15 3.40 993 7590 (1995) 705 (2009) 2390 1100 1260 1580 1790 2200 2730 3050 3750 4840
2026-05-09 23:15 3.42 1040 7590 (1995) 705 (2009) 2390 1100 1260 1580 1790 2200 2730 3050 3750 4840
2026-05-09 22:15 3.42 1040 6350 (2019) 902 (2009) 2370 1190 1320 1510 1710 2100 2640 2900 3800 5010
2026-05-09 21:15 3.45 1110 6350 (2019) 902 (2009) 2370 1190 1320 1510 1710 2100 2640 2900 3800 5010
2026-05-09 20:15 3.46 1130 6350 (2019) 902 (2009) 2370 1190 1320 1510 1710 2100 2640 2900 3800 5010
2026-05-09 19:15 3.46 1130 6350 (2019) 902 (2009) 2370 1190 1320 1510 1710 2100 2640 2900 3800 5010
2026-05-09 18:15 3.50 1230 6350 (2019) 902 (2009) 2370 1190 1320 1510 1710 2100 2640 2900 3800 5010
2026-05-09 17:15 3.50 1230 6350 (2019) 902 (2009) 2370 1190 1320 1510 1710 2100 2640 2900 3800 5010
2026-05-09 16:15 3.49 1210 6350 (2019) 902 (2009) 2370 1190 1320 1510 1710 2100 2640 2900 3800 5010
2026-05-09 15:15 3.51 1260 6350 (2019) 902 (2009) 2370 1190 1320 1510 1710 2100 2640 2900 3800 5010
2026-05-09 14:15 3.50 1230 6350 (2019) 902 (2009) 2370 1190 1320 1510 1710 2100 2640 2900 3800 5010
2026-05-09 13:15 3.49 1210 6350 (2019) 902 (2009) 2370 1190 1320 1510 1710 2100 2640 2900 3800 5010
2026-05-09 12:15 3.48 1180 6350 (2019) 902 (2009) 2370 1190 1320 1510 1710 2100 2640 2900 3800 5010
2026-05-09 11:15 3.46 1130 6350 (2019) 902 (2009) 2370 1190 1320 1510 1710 2100 2640 2900 3800 5010
2026-05-09 10:15 3.46 1130 6350 (2019) 902 (2009) 2370 1190 1320 1510 1710 2100 2640 2900 3800 5010
2026-05-09 09:15 3.45 1110 6350 (2019) 902 (2009) 2370 1190 1320 1510 1710 2100 2640 2900 3800 5010
2026-05-09 08:15 3.44 1080 6350 (2019) 902 (2009) 2370 1190 1320 1510 1710 2100 2640 2900 3800 5010
2026-05-09 07:15 3.45 1110 6350 (2019) 902 (2009) 2370 1190 1320 1510 1710 2100 2640 2900 3800 5010
2026-05-09 06:15 3.44 1080 6350 (2019) 902 (2009) 2370 1190 1320 1510 1710 2100 2640 2900 3800 5010
2026-05-09 05:15 3.41 1020 6350 (2019) 902 (2009) 2370 1190 1320 1510 1710 2100 2640 2900 3800 5010
2026-05-09 04:15 3.41 1020 6350 (2019) 902 (2009) 2370 1190 1320 1510 1710 2100 2640 2900 3800 5010
2026-05-09 03:15 3.43 1060 6350 (2019) 902 (2009) 2370 1190 1320 1510 1710 2100 2640 2900 3800 5010
2026-05-09 02:15 3.43 1060 6350 (2019) 902 (2009) 2370 1190 1320 1510 1710 2100 2640 2900 3800 5010
2026-05-09 01:15 3.45 1110 6350 (2019) 902 (2009) 2370 1190 1320 1510 1710 2100 2640 2900 3800 5010
2026-05-09 00:15 3.46 1130 6350 (2019) 902 (2009) 2370 1190 1320 1510 1710 2100 2640 2900 3800 5010
2026-05-08 23:15 3.48 1180 6350 (2019) 902 (2009) 2370 1190 1320 1510 1710 2100 2640 2900 3800 5010
2026-05-08 22:15 3.52 1290 5870 (1995) 927 (2009) 2320 1100 1260 1380 1490 2180 2700 2820 3970 4590
2026-05-08 21:15 3.55 1370 5870 (1995) 927 (2009) 2320 1100 1260 1380 1490 2180 2700 2820 3970 4590
2026-05-08 20:15 3.54 1340 5870 (1995) 927 (2009) 2320 1100 1260 1380 1490 2180 2700 2820 3970 4590
2026-05-08 19:15 3.54 1340 5870 (1995) 927 (2009) 2320 1100 1260 1380 1490 2180 2700 2820 3970 4590
2026-05-08 18:15 3.54 1340 5870 (1995) 927 (2009) 2320 1100 1260 1380 1490 2180 2700 2820 3970 4590
2026-05-08 17:15 3.54 1340 5870 (1995) 927 (2009) 2320 1100 1260 1380 1490 2180 2700 2820 3970 4590
2026-05-08 16:15 3.55 1370 5870 (1995) 927 (2009) 2320 1100 1260 1380 1490 2180 2700 2820 3970 4590
2026-05-08 15:15 3.53 1320 5870 (1995) 927 (2009) 2320 1100 1260 1380 1490 2180 2700 2820 3970 4590
2026-05-08 14:15 3.53 1320 5870 (1995) 927 (2009) 2320 1100 1260 1380 1490 2180 2700 2820 3970 4590
2026-05-08 13:15 3.55 1370 5870 (1995) 927 (2009) 2320 1100 1260 1380 1490 2180 2700 2820 3970 4590
2026-05-08 12:15 3.55 1370 5870 (1995) 927 (2009) 2320 1100 1260 1380 1490 2180 2700 2820 3970 4590
2026-05-08 11:15 3.56 1400 5870 (1995) 927 (2009) 2320 1100 1260 1380 1490 2180 2700 2820 3970 4590
2026-05-08 10:15 3.59 1490 5870 (1995) 927 (2009) 2320 1100 1260 1380 1490 2180 2700 2820 3970 4590
2026-05-08 09:15 3.57 1430 5870 (1995) 927 (2009) 2320 1100 1260 1380 1490 2180 2700 2820 3970 4590
2026-05-08 08:15 3.55 1370 5870 (1995) 927 (2009) 2320 1100 1260 1380 1490 2180 2700 2820 3970 4590
2026-05-08 07:15 3.53 1320 5870 (1995) 927 (2009) 2320 1100 1260 1380 1490 2180 2700 2820 3970 4590
2026-05-08 06:15 3.53 1320 5870 (1995) 927 (2009) 2320 1100 1260 1380 1490 2180 2700 2820 3970 4590
2026-05-08 05:15 3.51 1260 5870 (1995) 927 (2009) 2320 1100 1260 1380 1490 2180 2700 2820 3970 4590
2026-05-08 04:15 3.53 1320 5870 (1995) 927 (2009) 2320 1100 1260 1380 1490 2180 2700 2820 3970 4590
2026-05-08 03:15 3.54 1340 5870 (1995) 927 (2009) 2320 1100 1260 1380 1490 2180 2700 2820 3970 4590
2026-05-08 02:15 3.54 1340 5870 (1995) 927 (2009) 2320 1100 1260 1380 1490 2180 2700 2820 3970 4590
2026-05-08 01:15 3.57 1430 5870 (1995) 927 (2009) 2320 1100 1260 1380 1490 2180 2700 2820 3970 4590
2026-05-08 00:15 3.59 1490 5870 (1995) 927 (2009) 2320 1100 1260 1380 1490 2180 2700 2820 3970 4590
2026-05-07 23:15 3.61 1560 5870 (1995) 927 (2009) 2320 1100 1260 1380 1490 2180 2700 2820 3970 4590
2026-05-07 22:15 3.63 1630 7580 (2007) 995 (2009) 2370 1200 1310 1480 1500 2140 2750 2970 3920 4970
2026-05-07 21:15 3.65 1710 7580 (2007) 995 (2009) 2370 1200 1310 1480 1500 2140 2750 2970 3920 4970
2026-05-07 20:15 3.67 1780 7580 (2007) 995 (2009) 2370 1200 1310 1480 1500 2140 2750 2970 3920 4970
2026-05-07 19:15 3.66 1740 7580 (2007) 995 (2009) 2370 1200 1310 1480 1500 2140 2750 2970 3920 4970
2026-05-07 18:15 3.65 1710 7580 (2007) 995 (2009) 2370 1200 1310 1480 1500 2140 2750 2970 3920 4970
2026-05-07 17:15 3.65 1710 7580 (2007) 995 (2009) 2370 1200 1310 1480 1500 2140 2750 2970 3920 4970
2026-05-07 16:15 3.65 1710 7580 (2007) 995 (2009) 2370 1200 1310 1480 1500 2140 2750 2970 3920 4970
2026-05-07 15:15 3.65 1710 7580 (2007) 995 (2009) 2370 1200 1310 1480 1500 2140 2750 2970 3920 4970
2026-05-07 14:15 3.65 1710 7580 (2007) 995 (2009) 2370 1200 1310 1480 1500 2140 2750 2970 3920 4970
2026-05-07 13:15 3.65 1710 7580 (2007) 995 (2009) 2370 1200 1310 1480 1500 2140 2750 2970 3920 4970
2026-05-07 12:15 3.63 1630 7580 (2007) 995 (2009) 2370 1200 1310 1480 1500 2140 2750 2970 3920 4970
2026-05-07 11:15 3.63 1630 7580 (2007) 995 (2009) 2370 1200 1310 1480 1500 2140 2750 2970 3920 4970
2026-05-07 10:15 3.63 1630 7580 (2007) 995 (2009) 2370 1200 1310 1480 1500 2140 2750 2970 3920 4970
2026-05-07 09:15 3.62 1590 7580 (2007) 995 (2009) 2370 1200 1310 1480 1500 2140 2750 2970 3920 4970
2026-05-07 08:15 3.60 1520 7580 (2007) 995 (2009) 2370 1200 1310 1480 1500 2140 2750 2970 3920 4970
2026-05-07 07:15 3.56 1400 7580 (2007) 995 (2009) 2370 1200 1310 1480 1500 2140 2750 2970 3920 4970
2026-05-07 06:15 3.56 1400 7580 (2007) 995 (2009) 2370 1200 1310 1480 1500 2140 2750 2970 3920 4970
2026-05-07 05:15 3.59 1490 7580 (2007) 995 (2009) 2370 1200 1310 1480 1500 2140 2750 2970 3920 4970
2026-05-07 04:15 3.59 1490 7580 (2007) 995 (2009) 2370 1200 1310 1480 1500 2140 2750 2970 3920 4970
2026-05-07 03:15 3.61 1560 7580 (2007) 995 (2009) 2370 1200 1310 1480 1500 2140 2750 2970 3920 4970
2026-05-07 02:15 3.62 1590 7580 (2007) 995 (2009) 2370 1200 1310 1480 1500 2140 2750 2970 3920 4970
2026-05-07 01:15 3.63 1630 7580 (2007) 995 (2009) 2370 1200 1310 1480 1500 2140 2750 2970 3920 4970
2026-05-07 00:15 3.64 1670 7580 (2007) 995 (2009) 2370 1200 1310 1480 1500 2140 2750 2970 3920 4970
2026-05-06 23:15 3.65 1710 7580 (2007) 995 (2009) 2370 1200 1310 1480 1500 2140 2750 2970 3920 4970
2026-05-06 22:15 3.65 1710 6600 (1960) 1050 (1965) 2430 1210 1280 1430 1520 2120 2770 3030 4600 5300
2026-05-06 21:15 3.67 1780 6600 (1960) 1050 (1965) 2430 1210 1280 1430 1520 2120 2770 3030 4600 5300
2026-05-06 20:15 3.71 1950 6600 (1960) 1050 (1965) 2430 1210 1280 1430 1520 2120 2770 3030 4600 5300
2026-05-06 19:15 3.75 2130 6600 (1960) 1050 (1965) 2430 1210 1280 1430 1520 2120 2770 3030 4600 5300
2026-05-06 18:15 3.78 2270 6600 (1960) 1050 (1965) 2430 1210 1280 1430 1520 2120 2770 3030 4600 5300
2026-05-06 17:15 3.80 2370 6600 (1960) 1050 (1965) 2430 1210 1280 1430 1520 2120 2770 3030 4600 5300
2026-05-06 16:15 3.80 2370 6600 (1960) 1050 (1965) 2430 1210 1280 1430 1520 2120 2770 3030 4600 5300
2026-05-06 15:15 3.80 2370 6600 (1960) 1050 (1965) 2430 1210 1280 1430 1520 2120 2770 3030 4600 5300
2026-05-06 14:15 3.77 2220 6600 (1960) 1050 (1965) 2430 1210 1280 1430 1520 2120 2770 3030 4600 5300
2026-05-06 13:15 3.76 2170 6600 (1960) 1050 (1965) 2430 1210 1280 1430 1520 2120 2770 3030 4600 5300
2026-05-06 12:15 3.75 2130 6600 (1960) 1050 (1965) 2430 1210 1280 1430 1520 2120 2770 3030 4600 5300
2026-05-06 11:15 3.74 2080 6600 (1960) 1050 (1965) 2430 1210 1280 1430 1520 2120 2770 3030 4600 5300
2026-05-06 10:15 3.73 2040 6600 (1960) 1050 (1965) 2430 1210 1280 1430 1520 2120 2770 3030 4600 5300
2026-05-06 09:15 3.70 1910 6600 (1960) 1050 (1965) 2430 1210 1280 1430 1520 2120 2770 3030 4600 5300
2026-05-06 08:15 3.65 1710 6600 (1960) 1050 (1965) 2430 1210 1280 1430 1520 2120 2770 3030 4600 5300
2026-05-06 07:15 3.64 1670 6600 (1960) 1050 (1965) 2430 1210 1280 1430 1520 2120 2770 3030 4600 5300
2026-05-06 06:15 3.65 1710 6600 (1960) 1050 (1965) 2430 1210 1280 1430 1520 2120 2770 3030 4600 5300
2026-05-06 05:15 3.64 1670 6600 (1960) 1050 (1965) 2430 1210 1280 1430 1520 2120 2770 3030 4600 5300
2026-05-06 04:15 3.64 1670 6600 (1960) 1050 (1965) 2430 1210 1280 1430 1520 2120 2770 3030 4600 5300
2026-05-06 03:15 3.62 1590 6600 (1960) 1050 (1965) 2430 1210 1280 1430 1520 2120 2770 3030 4600 5300
2026-05-06 02:15 3.61 1560 6600 (1960) 1050 (1965) 2430 1210 1280 1430 1520 2120 2770 3030 4600 5300
2026-05-06 01:15 3.60 1520 6600 (1960) 1050 (1965) 2430 1210 1280 1430 1520 2120 2770 3030 4600 5300
2026-05-06 00:15 3.59 1490 6600 (1960) 1050 (1965) 2430 1210 1280 1430 1520 2120 2770 3030 4600 5300
2026-05-05 23:15 3.58 1460 6600 (1960) 1050 (1965) 2430 1210 1280 1430 1520 2120 2770 3030 4600 5300
2026-05-05 22:15 3.58 1460 7220 (2020) 1050 (2005) 2430 1220 1340 1510 1590 2120 2870 3010 3960 5250
2026-05-05 21:15 3.58 1460 7220 (2020) 1050 (2005) 2430 1220 1340 1510 1590 2120 2870 3010 3960 5250
2026-05-05 20:15 3.59 1490 7220 (2020) 1050 (2005) 2430 1220 1340 1510 1590 2120 2870 3010 3960 5250
2026-05-05 19:15 3.60 1520 7220 (2020) 1050 (2005) 2430 1220 1340 1510 1590 2120 2870 3010 3960 5250
2026-05-05 18:15 3.62 1590 7220 (2020) 1050 (2005) 2430 1220 1340 1510 1590 2120 2870 3010 3960 5250
2026-05-05 17:15 3.64 1670 7220 (2020) 1050 (2005) 2430 1220 1340 1510 1590 2120 2870 3010 3960 5250
2026-05-05 16:15 3.64 1670 7220 (2020) 1050 (2005) 2430 1220 1340 1510 1590 2120 2870 3010 3960 5250
2026-05-05 15:15 3.63 1630 7220 (2020) 1050 (2005) 2430 1220 1340 1510 1590 2120 2870 3010 3960 5250
2026-05-05 14:15 3.64 1670 7220 (2020) 1050 (2005) 2430 1220 1340 1510 1590 2120 2870 3010 3960 5250
2026-05-05 13:15 3.64 1670 7220 (2020) 1050 (2005) 2430 1220 1340 1510 1590 2120 2870 3010 3960 5250
2026-05-05 12:15 3.63 1630 7220 (2020) 1050 (2005) 2430 1220 1340 1510 1590 2120 2870 3010 3960 5250
2026-05-05 11:15 3.63 1630 7220 (2020) 1050 (2005) 2430 1220 1340 1510 1590 2120 2870 3010 3960 5250
2026-05-05 10:15 3.60 1520 7220 (2020) 1050 (2005) 2430 1220 1340 1510 1590 2120 2870 3010 3960 5250
2026-05-05 09:15 3.58 1460 7220 (2020) 1050 (2005) 2430 1220 1340 1510 1590 2120 2870 3010 3960 5250
2026-05-05 08:15 3.58 1460 7220 (2020) 1050 (2005) 2430 1220 1340 1510 1590 2120 2870 3010 3960 5250
2026-05-05 07:15 3.56 1400 7220 (2020) 1050 (2005) 2430 1220 1340 1510 1590 2120 2870 3010 3960 5250
2026-05-05 06:15 3.55 1370 7220 (2020) 1050 (2005) 2430 1220 1340 1510 1590 2120 2870 3010 3960 5250
2026-05-05 05:15 3.56 1400 7220 (2020) 1050 (2005) 2430 1220 1340 1510 1590 2120 2870 3010 3960 5250
2026-05-05 04:15 3.56 1400 7220 (2020) 1050 (2005) 2430 1220 1340 1510 1590 2120 2870 3010 3960 5250
2026-05-05 03:15 3.54 1340 7220 (2020) 1050 (2005) 2430 1220 1340 1510 1590 2120 2870 3010 3960 5250
2026-05-05 02:15 3.53 1320 7220 (2020) 1050 (2005) 2430 1220 1340 1510 1590 2120 2870 3010 3960 5250
2026-05-05 01:15 3.52 1290 7220 (2020) 1050 (2005) 2430 1220 1340 1510 1590 2120 2870 3010 3960 5250
2026-05-05 00:15 3.51 1260 7220 (2020) 1050 (2005) 2430 1220 1340 1510 1590 2120 2870 3010 3960 5250
2026-05-04 23:15 3.50 1230 7220 (2020) 1050 (2005) 2430 1220 1340 1510 1590 2120 2870 3010 3960 5250
2026-05-04 22:15 3.49 1210 6200 (1988) 829 (2005) 2430 1200 1320 1570 1640 2120 3060 3120 4230 5060
2026-05-04 21:15 3.50 1230 6200 (1988) 829 (2005) 2430 1200 1320 1570 1640 2120 3060 3120 4230 5060
2026-05-04 20:15 3.52 1290 6200 (1988) 829 (2005) 2430 1200 1320 1570 1640 2120 3060 3120 4230 5060
2026-05-04 19:15 3.54 1340 6200 (1988) 829 (2005) 2430 1200 1320 1570 1640 2120 3060 3120 4230 5060
2026-05-04 18:15 3.54 1340 6200 (1988) 829 (2005) 2430 1200 1320 1570 1640 2120 3060 3120 4230 5060
2026-05-04 17:15 3.56 1400 6200 (1988) 829 (2005) 2430 1200 1320 1570 1640 2120 3060 3120 4230 5060
2026-05-04 16:15 3.58 1460 6200 (1988) 829 (2005) 2430 1200 1320 1570 1640 2120 3060 3120 4230 5060
2026-05-04 15:15 3.60 1520 6200 (1988) 829 (2005) 2430 1200 1320 1570 1640 2120 3060 3120 4230 5060
2026-05-04 14:15 3.59 1490 6200 (1988) 829 (2005) 2430 1200 1320 1570 1640 2120 3060 3120 4230 5060
2026-05-04 13:15 3.57 1430 6200 (1988) 829 (2005) 2430 1200 1320 1570 1640 2120 3060 3120 4230 5060
2026-05-04 12:15 3.56 1400 6200 (1988) 829 (2005) 2430 1200 1320 1570 1640 2120 3060 3120 4230 5060
2026-05-04 11:15 3.55 1370 6200 (1988) 829 (2005) 2430 1200 1320 1570 1640 2120 3060 3120 4230 5060
2026-05-04 10:15 3.57 1430 6200 (1988) 829 (2005) 2430 1200 1320 1570 1640 2120 3060 3120 4230 5060
2026-05-04 09:15 3.55 1370 6200 (1988) 829 (2005) 2430 1200 1320 1570 1640 2120 3060 3120 4230 5060
2026-05-04 08:15 3.53 1320 6200 (1988) 829 (2005) 2430 1200 1320 1570 1640 2120 3060 3120 4230 5060
2026-05-04 07:15 3.51 1260 6200 (1988) 829 (2005) 2430 1200 1320 1570 1640 2120 3060 3120 4230 5060
2026-05-04 06:15 3.48 1180 6200 (1988) 829 (2005) 2430 1200 1320 1570 1640 2120 3060 3120 4230 5060
2026-05-04 05:15 3.48 1180 6200 (1988) 829 (2005) 2430 1200 1320 1570 1640 2120 3060 3120 4230 5060
2026-05-04 04:15 3.48 1180 6200 (1988) 829 (2005) 2430 1200 1320 1570 1640 2120 3060 3120 4230 5060
2026-05-04 03:15 3.49 1210 6200 (1988) 829 (2005) 2430 1200 1320 1570 1640 2120 3060 3120 4230 5060
2026-05-04 02:15 3.50 1230 6200 (1988) 829 (2005) 2430 1200 1320 1570 1640 2120 3060 3120 4230 5060
2026-05-04 01:15 3.51 1260 6200 (1988) 829 (2005) 2430 1200 1320 1570 1640 2120 3060 3120 4230 5060
2026-05-04 00:15 3.52 1290 6200 (1988) 829 (2005) 2430 1200 1320 1570 1640 2120 3060 3120 4230 5060
2026-05-03 23:15 3.52 1290 6200 (1988) 829 (2005) 2430 1200 1320 1570 1640 2120 3060 3120 4230 5060
2026-05-03 22:15 3.50 1230 8900 (1964) 787 (2005) 2510 1130 1330 1560 1670 2170 2910 3200 4010 5270
2026-05-03 21:15 3.49 1210 8900 (1964) 787 (2005) 2510 1130 1330 1560 1670 2170 2910 3200 4010 5270
2026-05-03 20:15 3.48 1180 8900 (1964) 787 (2005) 2510 1130 1330 1560 1670 2170 2910 3200 4010 5270
2026-05-03 19:15 3.51 1260 8900 (1964) 787 (2005) 2510 1130 1330 1560 1670 2170 2910 3200 4010 5270
2026-05-03 18:15 3.55 1370 8900 (1964) 787 (2005) 2510 1130 1330 1560 1670 2170 2910 3200 4010 5270
2026-05-03 17:15 3.57 1430 8900 (1964) 787 (2005) 2510 1130 1330 1560 1670 2170 2910 3200 4010 5270
2026-05-03 16:15 3.57 1430 8900 (1964) 787 (2005) 2510 1130 1330 1560 1670 2170 2910 3200 4010 5270
2026-05-03 15:15 3.58 1460 8900 (1964) 787 (2005) 2510 1130 1330 1560 1670 2170 2910 3200 4010 5270
2026-05-03 14:15 3.59 1490 8900 (1964) 787 (2005) 2510 1130 1330 1560 1670 2170 2910 3200 4010 5270
2026-05-03 13:15 3.60 1520 8900 (1964) 787 (2005) 2510 1130 1330 1560 1670 2170 2910 3200 4010 5270
2026-05-03 12:15 3.58 1460 8900 (1964) 787 (2005) 2510 1130 1330 1560 1670 2170 2910 3200 4010 5270
2026-05-03 11:15 3.57 1430 8900 (1964) 787 (2005) 2510 1130 1330 1560 1670 2170 2910 3200 4010 5270
2026-05-03 10:15 3.55 1370 8900 (1964) 787 (2005) 2510 1130 1330 1560 1670 2170 2910 3200 4010 5270
2026-05-03 09:15 3.52 1290 8900 (1964) 787 (2005) 2510 1130 1330 1560 1670 2170 2910 3200 4010 5270
2026-05-03 08:15 3.54 1340 8900 (1964) 787 (2005) 2510 1130 1330 1560 1670 2170 2910 3200 4010 5270
2026-05-03 07:15 3.52 1290 8900 (1964) 787 (2005) 2510 1130 1330 1560 1670 2170 2910 3200 4010 5270
2026-05-03 06:15 3.50 1230 8900 (1964) 787 (2005) 2510 1130 1330 1560 1670 2170 2910 3200 4010 5270
2026-05-03 05:15 3.49 1210 8900 (1964) 787 (2005) 2510 1130 1330 1560 1670 2170 2910 3200 4010 5270
2026-05-03 04:15 3.48 1180 8900 (1964) 787 (2005) 2510 1130 1330 1560 1670 2170 2910 3200 4010 5270
2026-05-03 03:15 3.49 1210 8900 (1964) 787 (2005) 2510 1130 1330 1560 1670 2170 2910 3200 4010 5270
2026-05-03 02:15 3.49 1210 8900 (1964) 787 (2005) 2510 1130 1330 1560 1670 2170 2910 3200 4010 5270
2026-05-03 01:15 3.48 1180 8900 (1964) 787 (2005) 2510 1130 1330 1560 1670 2170 2910 3200 4010 5270
2026-05-03 00:15 3.49 1210 8900 (1964) 787 (2005) 2510 1130 1330 1560 1670 2170 2910 3200 4010 5270
2026-05-02 23:15 3.49 1210 8900 (1964) 787 (2005) 2510 1130 1330 1560 1670 2170 2910 3200 4010 5270
2026-05-02 22:15 3.51 1260 6760 (2016) 731 (2005) 2540 1110 1370 1560 1690 2380 3010 3230 3790 5200
2026-05-02 21:15 3.51 1260 6760 (2016) 731 (2005) 2540 1110 1370 1560 1690 2380 3010 3230 3790 5200
2026-05-02 20:15 3.53 1320 6760 (2016) 731 (2005) 2540 1110 1370 1560 1690 2380 3010 3230 3790 5200
2026-05-02 19:15 3.52 1290 6760 (2016) 731 (2005) 2540 1110 1370 1560 1690 2380 3010 3230 3790 5200
2026-05-02 18:15 3.54 1340 6760 (2016) 731 (2005) 2540 1110 1370 1560 1690 2380 3010 3230 3790 5200
2026-05-02 17:15 3.55 1370 6760 (2016) 731 (2005) 2540 1110 1370 1560 1690 2380 3010 3230 3790 5200
2026-05-02 16:15 3.57 1430 6760 (2016) 731 (2005) 2540 1110 1370 1560 1690 2380 3010 3230 3790 5200
2026-05-02 15:15 3.58 1460 6760 (2016) 731 (2005) 2540 1110 1370 1560 1690 2380 3010 3230 3790 5200
2026-05-02 14:15 3.56 1400 6760 (2016) 731 (2005) 2540 1110 1370 1560 1690 2380 3010 3230 3790 5200
2026-05-02 13:15 3.56 1400 6760 (2016) 731 (2005) 2540 1110 1370 1560 1690 2380 3010 3230 3790 5200
2026-05-02 12:15 3.57 1430 6760 (2016) 731 (2005) 2540 1110 1370 1560 1690 2380 3010 3230 3790 5200
2026-05-02 11:15 3.60 1520 6760 (2016) 731 (2005) 2540 1110 1370 1560 1690 2380 3010 3230 3790 5200
2026-05-02 10:15 3.59 1490 6760 (2016) 731 (2005) 2540 1110 1370 1560 1690 2380 3010 3230 3790 5200
2026-05-02 09:15 3.57 1430 6760 (2016) 731 (2005) 2540 1110 1370 1560 1690 2380 3010 3230 3790 5200
2026-05-02 08:15 3.59 1490 6760 (2016) 731 (2005) 2540 1110 1370 1560 1690 2380 3010 3230 3790 5200
2026-05-02 07:15 3.60 1520 6760 (2016) 731 (2005) 2540 1110 1370 1560 1690 2380 3010 3230 3790 5200
2026-05-02 06:15 3.63 1630 6760 (2016) 731 (2005) 2540 1110 1370 1560 1690 2380 3010 3230 3790 5200
2026-05-02 05:15 3.64 1670 6760 (2016) 731 (2005) 2540 1110 1370 1560 1690 2380 3010 3230 3790 5200
2026-05-02 04:15 3.64 1670 6760 (2016) 731 (2005) 2540 1110 1370 1560 1690 2380 3010 3230 3790 5200
2026-05-02 03:15 3.64 1670 6760 (2016) 731 (2005) 2540 1110 1370 1560 1690 2380 3010 3230 3790 5200
2026-05-02 02:15 3.66 1740 6760 (2016) 731 (2005) 2540 1110 1370 1560 1690 2380 3010 3230 3790 5200
2026-05-02 01:15 3.70 1910 6760 (2016) 731 (2005) 2540 1110 1370 1560 1690 2380 3010 3230 3790 5200
2026-05-02 00:15 3.72 1990 6760 (2016) 731 (2005) 2540 1110 1370 1560 1690 2380 3010 3230 3790 5200
2026-05-01 23:15 3.72 1990 6760 (2016) 731 (2005) 2540 1110 1370 1560 1690 2380 3010 3230 3790 5200
2026-05-01 22:15 3.71 1950 7470 (2016) 804 (2005) 2520 1250 1380 1600 1660 2440 3100 3230 3710 4590
2026-05-01 21:15 3.72 1990 7470 (2016) 804 (2005) 2520 1250 1380 1600 1660 2440 3100 3230 3710 4590
2026-05-01 20:15 3.73 2040 7470 (2016) 804 (2005) 2520 1250 1380 1600 1660 2440 3100 3230 3710 4590
2026-05-01 19:15 3.72 1990 7470 (2016) 804 (2005) 2520 1250 1380 1600 1660 2440 3100 3230 3710 4590
2026-05-01 18:15 3.72 1990 7470 (2016) 804 (2005) 2520 1250 1380 1600 1660 2440 3100 3230 3710 4590
2026-05-01 17:15 3.71 1950 7470 (2016) 804 (2005) 2520 1250 1380 1600 1660 2440 3100 3230 3710 4590
2026-05-01 16:15 3.69 1870 7470 (2016) 804 (2005) 2520 1250 1380 1600 1660 2440 3100 3230 3710 4590
2026-05-01 15:15 3.69 1870 7470 (2016) 804 (2005) 2520 1250 1380 1600 1660 2440 3100 3230 3710 4590
2026-05-01 14:15 3.69 1870 7470 (2016) 804 (2005) 2520 1250 1380 1600 1660 2440 3100 3230 3710 4590
2026-05-01 13:15 3.66 1740 7470 (2016) 804 (2005) 2520 1250 1380 1600 1660 2440 3100 3230 3710 4590
2026-05-01 12:15 3.64 1670 7470 (2016) 804 (2005) 2520 1250 1380 1600 1660 2440 3100 3230 3710 4590
2026-05-01 11:15 3.62 1590 7470 (2016) 804 (2005) 2520 1250 1380 1600 1660 2440 3100 3230 3710 4590
2026-05-01 10:15 3.59 1490 7470 (2016) 804 (2005) 2520 1250 1380 1600 1660 2440 3100 3230 3710 4590
2026-05-01 09:15 3.58 1460 7470 (2016) 804 (2005) 2520 1250 1380 1600 1660 2440 3100 3230 3710 4590
2026-05-01 08:15 3.58 1460 7470 (2016) 804 (2005) 2520 1250 1380 1600 1660 2440 3100 3230 3710 4590
2026-05-01 07:15 3.59 1490 7470 (2016) 804 (2005) 2520 1250 1380 1600 1660 2440 3100 3230 3710 4590
2026-05-01 06:15 3.58 1460 7470 (2016) 804 (2005) 2520 1250 1380 1600 1660 2440 3100 3230 3710 4590
2026-05-01 05:15 3.60 1520 7470 (2016) 804 (2005) 2520 1250 1380 1600 1660 2440 3100 3230 3710 4590
2026-05-01 04:15 3.61 1560 7470 (2016) 804 (2005) 2520 1250 1380 1600 1660 2440 3100 3230 3710 4590
2026-05-01 03:15 3.60 1520 7470 (2016) 804 (2005) 2520 1250 1380 1600 1660 2440 3100 3230 3710 4590
2026-05-01 02:15 3.61 1560 7470 (2016) 804 (2005) 2520 1250 1380 1600 1660 2440 3100 3230 3710 4590
2026-05-01 01:15 3.61 1560 7470 (2016) 804 (2005) 2520 1250 1380 1600 1660 2440 3100 3230 3710 4590
2026-05-01 00:15 3.62 1590 7470 (2016) 804 (2005) 2520 1250 1380 1600 1660 2440 3100 3230 3710 4590
2026-04-30 23:15 3.62 1590 7470 (2016) 804 (2005) 2520 1250 1380 1600 1660 2440 3100 3230 3710 4590
2026-04-30 22:15 3.61 1560 4620 (2016) 904 (2005) 2440 1280 1400 1650 1780 2350 2920 3240 3740 4040
2026-04-30 21:15 3.64 1670 4620 (2016) 904 (2005) 2440 1280 1400 1650 1780 2350 2920 3240 3740 4040
2026-04-30 20:15 3.67 1780 4620 (2016) 904 (2005) 2440 1280 1400 1650 1780 2350 2920 3240 3740 4040
2026-04-30 19:15 3.69 1870 4620 (2016) 904 (2005) 2440 1280 1400 1650 1780 2350 2920 3240 3740 4040
2026-04-30 18:15 3.70 1910 4620 (2016) 904 (2005) 2440 1280 1400 1650 1780 2350 2920 3240 3740 4040
2026-04-30 17:15 3.70 1910 4620 (2016) 904 (2005) 2440 1280 1400 1650 1780 2350 2920 3240 3740 4040
2026-04-30 16:15 3.70 1910 4620 (2016) 904 (2005) 2440 1280 1400 1650 1780 2350 2920 3240 3740 4040
2026-04-30 15:15 3.71 1950 4620 (2016) 904 (2005) 2440 1280 1400 1650 1780 2350 2920 3240 3740 4040
2026-04-30 14:15 3.70 1910 4620 (2016) 904 (2005) 2440 1280 1400 1650 1780 2350 2920 3240 3740 4040
2026-04-30 13:15 3.71 1950 4620 (2016) 904 (2005) 2440 1280 1400 1650 1780 2350 2920 3240 3740 4040
2026-04-30 12:15 3.70 1910 4620 (2016) 904 (2005) 2440 1280 1400 1650 1780 2350 2920 3240 3740 4040
2026-04-30 11:15 3.70 1910 4620 (2016) 904 (2005) 2440 1280 1400 1650 1780 2350 2920 3240 3740 4040
2026-04-30 10:15 3.70 1910 4620 (2016) 904 (2005) 2440 1280 1400 1650 1780 2350 2920 3240 3740 4040
2026-04-30 09:15 3.69 1870 4620 (2016) 904 (2005) 2440 1280 1400 1650 1780 2350 2920 3240 3740 4040
2026-04-30 08:15 3.69 1870 4620 (2016) 904 (2005) 2440 1280 1400 1650 1780 2350 2920 3240 3740 4040
2026-04-30 07:15 3.68 1820 4620 (2016) 904 (2005) 2440 1280 1400 1650 1780 2350 2920 3240 3740 4040
2026-04-30 06:15 3.69 1870 4620 (2016) 904 (2005) 2440 1280 1400 1650 1780 2350 2920 3240 3740 4040
2026-04-30 05:15 3.67 1780 4620 (2016) 904 (2005) 2440 1280 1400 1650 1780 2350 2920 3240 3740 4040
2026-04-30 04:15 3.64 1670 4620 (2016) 904 (2005) 2440 1280 1400 1650 1780 2350 2920 3240 3740 4040
2026-04-30 03:15 3.64 1670 4620 (2016) 904 (2005) 2440 1280 1400 1650 1780 2350 2920 3240 3740 4040
2026-04-30 02:15 3.65 1710 4620 (2016) 904 (2005) 2440 1280 1400 1650 1780 2350 2920 3240 3740 4040
2026-04-30 01:15 3.67 1780 4620 (2016) 904 (2005) 2440 1280 1400 1650 1780 2350 2920 3240 3740 4040
2026-04-30 00:15 3.67 1780 4620 (2016) 904 (2005) 2440 1280 1400 1650 1780 2350 2920 3240 3740 4040
2026-04-29 23:15 3.67 1780 4620 (2016) 904 (2005) 2440 1280 1400 1650 1780 2350 2920 3240 3740 4040
2026-04-29 22:15 3.67 1780 4600 (2021) 960 (2005) 2390 1300 1430 1670 1760 2170 2980 3120 3610 3970
2026-04-29 21:15 3.67 1780 4600 (2021) 960 (2005) 2390 1300 1430 1670 1760 2170 2980 3120 3610 3970
2026-04-29 20:15 3.70 1910 4600 (2021) 960 (2005) 2390 1300 1430 1670 1760 2170 2980 3120 3610 3970
2026-04-29 19:15 3.74 2080 4600 (2021) 960 (2005) 2390 1300 1430 1670 1760 2170 2980 3120 3610 3970
2026-04-29 18:15 3.79 2320 4600 (2021) 960 (2005) 2390 1300 1430 1670 1760 2170 2980 3120 3610 3970
2026-04-29 17:15 3.81 2420 4600 (2021) 960 (2005) 2390 1300 1430 1670 1760 2170 2980 3120 3610 3970
2026-04-29 16:15 3.79 2320 4600 (2021) 960 (2005) 2390 1300 1430 1670 1760 2170 2980 3120 3610 3970
2026-04-29 15:15 3.81 2420 4600 (2021) 960 (2005) 2390 1300 1430 1670 1760 2170 2980 3120 3610 3970
2026-04-29 14:15 3.82 2470 4600 (2021) 960 (2005) 2390 1300 1430 1670 1760 2170 2980 3120 3610 3970
2026-04-29 13:15 3.85 2630 4600 (2021) 960 (2005) 2390 1300 1430 1670 1760 2170 2980 3120 3610 3970
2026-04-29 12:15 3.87 2750 4600 (2021) 960 (2005) 2390 1300 1430 1670 1760 2170 2980 3120 3610 3970
2026-04-29 11:15 3.87 2750 4600 (2021) 960 (2005) 2390 1300 1430 1670 1760 2170 2980 3120 3610 3970
2026-04-29 10:15 3.87 2750 4600 (2021) 960 (2005) 2390 1300 1430 1670 1760 2170 2980 3120 3610 3970
2026-04-29 09:15 3.88 2800 4600 (2021) 960 (2005) 2390 1300 1430 1670 1760 2170 2980 3120 3610 3970
2026-04-29 08:15 3.87 2750 4600 (2021) 960 (2005) 2390 1300 1430 1670 1760 2170 2980 3120 3610 3970
2026-04-29 07:15 3.90 2920 4600 (2021) 960 (2005) 2390 1300 1430 1670 1760 2170 2980 3120 3610 3970
2026-04-29 06:15 3.89 2860 4600 (2021) 960 (2005) 2390 1300 1430 1670 1760 2170 2980 3120 3610 3970
2026-04-29 05:15 3.89 2860 4600 (2021) 960 (2005) 2390 1300 1430 1670 1760 2170 2980 3120 3610 3970
2026-04-29 04:15 3.86 2690 4600 (2021) 960 (2005) 2390 1300 1430 1670 1760 2170 2980 3120 3610 3970
2026-04-29 03:15 3.83 2530 4600 (2021) 960 (2005) 2390 1300 1430 1670 1760 2170 2980 3120 3610 3970
2026-04-29 02:15 3.84 2580 4600 (2021) 960 (2005) 2390 1300 1430 1670 1760 2170 2980 3120 3610 3970
2026-04-29 01:15 3.81 2420 4600 (2021) 960 (2005) 2390 1300 1430 1670 1760 2170 2980 3120 3610 3970
2026-04-29 00:15 3.81 2420 4600 (2021) 960 (2005) 2390 1300 1430 1670 1760 2170 2980 3120 3610 3970
2026-04-28 23:15 3.79 2320 4600 (2021) 960 (2005) 2390 1300 1430 1670 1760 2170 2980 3120 3610 3970
2026-04-28 22:15 3.80 2370 5710 (2021) 1120 (2004) 2470 1340 1450 1630 1720 2310 2930 3240 3770 4500
2026-04-28 21:15 3.79 2320 5710 (2021) 1120 (2004) 2470 1340 1450 1630 1720 2310 2930 3240 3770 4500
2026-04-28 20:15 3.80 2370 5710 (2021) 1120 (2004) 2470 1340 1450 1630 1720 2310 2930 3240 3770 4500
2026-04-28 19:15 3.81 2420 5710 (2021) 1120 (2004) 2470 1340 1450 1630 1720 2310 2930 3240 3770 4500
2026-04-28 18:15 3.81 2420 5710 (2021) 1120 (2004) 2470 1340 1450 1630 1720 2310 2930 3240 3770 4500
2026-04-28 17:15 3.79 2320 5710 (2021) 1120 (2004) 2470 1340 1450 1630 1720 2310 2930 3240 3770 4500
2026-04-28 16:15 3.81 2420 5710 (2021) 1120 (2004) 2470 1340 1450 1630 1720 2310 2930 3240 3770 4500
2026-04-28 15:15 3.81 2420 5710 (2021) 1120 (2004) 2470 1340 1450 1630 1720 2310 2930 3240 3770 4500
2026-04-28 14:15 3.82 2470 5710 (2021) 1120 (2004) 2470 1340 1450 1630 1720 2310 2930 3240 3770 4500
2026-04-28 13:15 3.83 2530 5710 (2021) 1120 (2004) 2470 1340 1450 1630 1720 2310 2930 3240 3770 4500
2026-04-28 12:15 3.82 2470 5710 (2021) 1120 (2004) 2470 1340 1450 1630 1720 2310 2930 3240 3770 4500
2026-04-28 11:15 3.84 2580 5710 (2021) 1120 (2004) 2470 1340 1450 1630 1720 2310 2930 3240 3770 4500
2026-04-28 10:15 3.85 2630 5710 (2021) 1120 (2004) 2470 1340 1450 1630 1720 2310 2930 3240 3770 4500
2026-04-28 09:15 3.84 2580 5710 (2021) 1120 (2004) 2470 1340 1450 1630 1720 2310 2930 3240 3770 4500
2026-04-28 08:15 3.82 2470 5710 (2021) 1120 (2004) 2470 1340 1450 1630 1720 2310 2930 3240 3770 4500
2026-04-28 07:15 3.83 2530 5710 (2021) 1120 (2004) 2470 1340 1450 1630 1720 2310 2930 3240 3770 4500
2026-04-28 06:15 3.86 2690 5710 (2021) 1120 (2004) 2470 1340 1450 1630 1720 2310 2930 3240 3770 4500
2026-04-28 05:15 3.89 2860 5710 (2021) 1120 (2004) 2470 1340 1450 1630 1720 2310 2930 3240 3770 4500
2026-04-28 04:15 3.90 2920 5710 (2021) 1120 (2004) 2470 1340 1450 1630 1720 2310 2930 3240 3770 4500
2026-04-28 03:15 3.92 3050 5710 (2021) 1120 (2004) 2470 1340 1450 1630 1720 2310 2930 3240 3770 4500
2026-04-28 02:15 3.91 2980 5710 (2021) 1120 (2004) 2470 1340 1450 1630 1720 2310 2930 3240 3770 4500
2026-04-28 01:15 3.91 2980 5710 (2021) 1120 (2004) 2470 1340 1450 1630 1720 2310 2930 3240 3770 4500
2026-04-28 00:15 3.90 2920 5710 (2021) 1120 (2004) 2470 1340 1450 1630 1720 2310 2930 3240 3770 4500
2026-04-27 23:15 3.85 2630 5710 (2021) 1120 (2004) 2470 1340 1450 1630 1720 2310 2930 3240 3770 4500
2026-04-27 22:15 3.83 2530 7000 (1964) 1080 (2004) 2490 1260 1400 1640 1680 2200 3000 3040 3710 5030
2026-04-27 21:15 3.83 2530 7000 (1964) 1080 (2004) 2490 1260 1400 1640 1680 2200 3000 3040 3710 5030
2026-04-27 20:15 3.83 2530 7000 (1964) 1080 (2004) 2490 1260 1400 1640 1680 2200 3000 3040 3710 5030
2026-04-27 19:15 3.85 2630 7000 (1964) 1080 (2004) 2490 1260 1400 1640 1680 2200 3000 3040 3710 5030
2026-04-27 18:15 3.87 2750 7000 (1964) 1080 (2004) 2490 1260 1400 1640 1680 2200 3000 3040 3710 5030
2026-04-27 17:15 3.89 2860 7000 (1964) 1080 (2004) 2490 1260 1400 1640 1680 2200 3000 3040 3710 5030
2026-04-27 16:15 3.87 2750 7000 (1964) 1080 (2004) 2490 1260 1400 1640 1680 2200 3000 3040 3710 5030
2026-04-27 15:15 3.87 2750 7000 (1964) 1080 (2004) 2490 1260 1400 1640 1680 2200 3000 3040 3710 5030
2026-04-27 14:15 3.86 2690 7000 (1964) 1080 (2004) 2490 1260 1400 1640 1680 2200 3000 3040 3710 5030
2026-04-27 13:15 3.87 2750 7000 (1964) 1080 (2004) 2490 1260 1400 1640 1680 2200 3000 3040 3710 5030
2026-04-27 12:15 3.86 2690 7000 (1964) 1080 (2004) 2490 1260 1400 1640 1680 2200 3000 3040 3710 5030
2026-04-27 11:15 3.83 2530 7000 (1964) 1080 (2004) 2490 1260 1400 1640 1680 2200 3000 3040 3710 5030
2026-04-27 10:15 3.81 2420 7000 (1964) 1080 (2004) 2490 1260 1400 1640 1680 2200 3000 3040 3710 5030
2026-04-27 09:15 3.82 2470 7000 (1964) 1080 (2004) 2490 1260 1400 1640 1680 2200 3000 3040 3710 5030
2026-04-27 08:15 3.82 2470 7000 (1964) 1080 (2004) 2490 1260 1400 1640 1680 2200 3000 3040 3710 5030
2026-04-27 07:15 3.82 2470 7000 (1964) 1080 (2004) 2490 1260 1400 1640 1680 2200 3000 3040 3710 5030
2026-04-27 06:15 3.81 2420 7000 (1964) 1080 (2004) 2490 1260 1400 1640 1680 2200 3000 3040 3710 5030
2026-04-27 05:15 3.80 2370 7000 (1964) 1080 (2004) 2490 1260 1400 1640 1680 2200 3000 3040 3710 5030
2026-04-27 04:15 3.80 2370 7000 (1964) 1080 (2004) 2490 1260 1400 1640 1680 2200 3000 3040 3710 5030
2026-04-27 03:15 3.82 2470 7000 (1964) 1080 (2004) 2490 1260 1400 1640 1680 2200 3000 3040 3710 5030
2026-04-27 02:15 3.85 2630 7000 (1964) 1080 (2004) 2490 1260 1400 1640 1680 2200 3000 3040 3710 5030
2026-04-27 01:15 3.83 2530 7000 (1964) 1080 (2004) 2490 1260 1400 1640 1680 2200 3000 3040 3710 5030
2026-04-27 00:15 3.83 2530 7000 (1964) 1080 (2004) 2490 1260 1400 1640 1680 2200 3000 3040 3710 5030
2026-04-26 22:15 3.82 2470 5930 (1995) 1180 (1981) 2420 1330 1420 1580 1700 2130 3100 3270 3820 4210
2026-04-26 21:15 3.82 2470 5930 (1995) 1180 (1981) 2420 1330 1420 1580 1700 2130 3100 3270 3820 4210
2026-04-26 20:15 3.82 2470 5930 (1995) 1180 (1981) 2420 1330 1420 1580 1700 2130 3100 3270 3820 4210
2026-04-26 19:15 3.81 2420 5930 (1995) 1180 (1981) 2420 1330 1420 1580 1700 2130 3100 3270 3820 4210
2026-04-26 18:15 3.77 2220 5930 (1995) 1180 (1981) 2420 1330 1420 1580 1700 2130 3100 3270 3820 4210
2026-04-26 17:15 3.78 2270 5930 (1995) 1180 (1981) 2420 1330 1420 1580 1700 2130 3100 3270 3820 4210
2026-04-26 16:15 3.77 2220 5930 (1995) 1180 (1981) 2420 1330 1420 1580 1700 2130 3100 3270 3820 4210
2026-04-26 15:15 3.76 2170 5930 (1995) 1180 (1981) 2420 1330 1420 1580 1700 2130 3100 3270 3820 4210
2026-04-26 14:15 3.77 2220 5930 (1995) 1180 (1981) 2420 1330 1420 1580 1700 2130 3100 3270 3820 4210
2026-04-26 13:15 3.78 2270 5930 (1995) 1180 (1981) 2420 1330 1420 1580 1700 2130 3100 3270 3820 4210
2026-04-26 12:15 3.75 2130 5930 (1995) 1180 (1981) 2420 1330 1420 1580 1700 2130 3100 3270 3820 4210
2026-04-26 11:15 3.74 2080 5930 (1995) 1180 (1981) 2420 1330 1420 1580 1700 2130 3100 3270 3820 4210
2026-04-26 10:15 3.73 2040 5930 (1995) 1180 (1981) 2420 1330 1420 1580 1700 2130 3100 3270 3820 4210
2026-04-26 09:15 3.74 2080 5930 (1995) 1180 (1981) 2420 1330 1420 1580 1700 2130 3100 3270 3820 4210
2026-04-26 08:15 3.75 2130 5930 (1995) 1180 (1981) 2420 1330 1420 1580 1700 2130 3100 3270 3820 4210
2026-04-26 07:15 3.77 2220 5930 (1995) 1180 (1981) 2420 1330 1420 1580 1700 2130 3100 3270 3820 4210
2026-04-26 06:15 3.74 2080 5930 (1995) 1180 (1981) 2420 1330 1420 1580 1700 2130 3100 3270 3820 4210
2026-04-26 05:15 3.74 2080 5930 (1995) 1180 (1981) 2420 1330 1420 1580 1700 2130 3100 3270 3820 4210
2026-04-26 04:15 3.75 2130 5930 (1995) 1180 (1981) 2420 1330 1420 1580 1700 2130 3100 3270 3820 4210
2026-04-26 03:15 3.75 2130 5930 (1995) 1180 (1981) 2420 1330 1420 1580 1700 2130 3100 3270 3820 4210
2026-04-26 02:15 3.76 2170 5930 (1995) 1180 (1981) 2420 1330 1420 1580 1700 2130 3100 3270 3820 4210
2026-04-26 01:15 3.77 2220 5930 (1995) 1180 (1981) 2420 1330 1420 1580 1700 2130 3100 3270 3820 4210
2026-04-26 00:15 3.78 2270 5930 (1995) 1180 (1981) 2420 1330 1420 1580 1700 2130 3100 3270 3820 4210
2026-04-25 23:15 3.77 2220 5930 (1995) 1180 (1981) 2420 1330 1420 1580 1700 2130 3100 3270 3820 4210
2026-04-25 22:15 3.77 2220 7540 (1995) 1170 (1982) 2420 1310 1450 1620 1680 2060 2900 3150 3710 4470
2026-04-25 21:15 3.77 2220 7540 (1995) 1170 (1982) 2420 1310 1450 1620 1680 2060 2900 3150 3710 4470
2026-04-25 20:15 3.75 2130 7540 (1995) 1170 (1982) 2420 1310 1450 1620 1680 2060 2900 3150 3710 4470
2026-04-25 19:15 3.74 2080 7540 (1995) 1170 (1982) 2420 1310 1450 1620 1680 2060 2900 3150 3710 4470
2026-04-25 18:15 3.73 2040 7540 (1995) 1170 (1982) 2420 1310 1450 1620 1680 2060 2900 3150 3710 4470
2026-04-25 17:15 3.73 2040 7540 (1995) 1170 (1982) 2420 1310 1450 1620 1680 2060 2900 3150 3710 4470
2026-04-25 16:15 3.73 2040 7540 (1995) 1170 (1982) 2420 1310 1450 1620 1680 2060 2900 3150 3710 4470
2026-04-25 15:15 3.72 1990 7540 (1995) 1170 (1982) 2420 1310 1450 1620 1680 2060 2900 3150 3710 4470
2026-04-25 14:15 3.71 1950 7540 (1995) 1170 (1982) 2420 1310 1450 1620 1680 2060 2900 3150 3710 4470
2026-04-25 13:15 3.71 1950 7540 (1995) 1170 (1982) 2420 1310 1450 1620 1680 2060 2900 3150 3710 4470
2026-04-25 12:15 3.70 1910 7540 (1995) 1170 (1982) 2420 1310 1450 1620 1680 2060 2900 3150 3710 4470
2026-04-25 11:15 3.71 1950 7540 (1995) 1170 (1982) 2420 1310 1450 1620 1680 2060 2900 3150 3710 4470
2026-04-25 10:15 3.72 1990 7540 (1995) 1170 (1982) 2420 1310 1450 1620 1680 2060 2900 3150 3710 4470
2026-04-25 09:15 3.73 2040 7540 (1995) 1170 (1982) 2420 1310 1450 1620 1680 2060 2900 3150 3710 4470
2026-04-25 08:15 3.73 2040 7540 (1995) 1170 (1982) 2420 1310 1450 1620 1680 2060 2900 3150 3710 4470
2026-04-25 07:15 3.73 2040 7540 (1995) 1170 (1982) 2420 1310 1450 1620 1680 2060 2900 3150 3710 4470
2026-04-25 06:15 3.73 2040 7540 (1995) 1170 (1982) 2420 1310 1450 1620 1680 2060 2900 3150 3710 4470
2026-04-25 05:15 3.72 1990 7540 (1995) 1170 (1982) 2420 1310 1450 1620 1680 2060 2900 3150 3710 4470
2026-04-25 04:15 3.72 1990 7540 (1995) 1170 (1982) 2420 1310 1450 1620 1680 2060 2900 3150 3710 4470
2026-04-25 03:15 3.72 1990 7540 (1995) 1170 (1982) 2420 1310 1450 1620 1680 2060 2900 3150 3710 4470
2026-04-25 02:15 3.73 2040 7540 (1995) 1170 (1982) 2420 1310 1450 1620 1680 2060 2900 3150 3710 4470
2026-04-25 01:15 3.72 1990 7540 (1995) 1170 (1982) 2420 1310 1450 1620 1680 2060 2900 3150 3710 4470
2026-04-25 00:15 3.74 2080 7540 (1995) 1170 (1982) 2420 1310 1450 1620 1680 2060 2900 3150 3710 4470
2026-04-24 23:15 3.75 2130 7540 (1995) 1170 (1982) 2420 1310 1450 1620 1680 2060 2900 3150 3710 4470
2026-04-24 22:15 3.76 2170 7380 (1995) 1200 (1967) 2490 1380 1560 1700 1740 2080 2940 3080 3550 5210
2026-04-24 21:15 3.77 2220 7380 (1995) 1200 (1967) 2490 1380 1560 1700 1740 2080 2940 3080 3550 5210
2026-04-24 20:15 3.77 2220 7380 (1995) 1200 (1967) 2490 1380 1560 1700 1740 2080 2940 3080 3550 5210
2026-04-24 19:15 3.76 2170 7380 (1995) 1200 (1967) 2490 1380 1560 1700 1740 2080 2940 3080 3550 5210
2026-04-24 18:15 3.74 2080 7380 (1995) 1200 (1967) 2490 1380 1560 1700 1740 2080 2940 3080 3550 5210
2026-04-24 17:15 3.74 2080 7380 (1995) 1200 (1967) 2490 1380 1560 1700 1740 2080 2940 3080 3550 5210
2026-04-24 16:15 3.73 2040 7380 (1995) 1200 (1967) 2490 1380 1560 1700 1740 2080 2940 3080 3550 5210
2026-04-24 15:15 3.73 2040 7380 (1995) 1200 (1967) 2490 1380 1560 1700 1740 2080 2940 3080 3550 5210
2026-04-24 14:15 3.73 2040 7380 (1995) 1200 (1967) 2490 1380 1560 1700 1740 2080 2940 3080 3550 5210
2026-04-24 13:15 3.74 2080 7380 (1995) 1200 (1967) 2490 1380 1560 1700 1740 2080 2940 3080 3550 5210
2026-04-24 12:15 3.74 2080 7380 (1995) 1200 (1967) 2490 1380 1560 1700 1740 2080 2940 3080 3550 5210
2026-04-24 11:15 3.74 2080 7380 (1995) 1200 (1967) 2490 1380 1560 1700 1740 2080 2940 3080 3550 5210
2026-04-24 10:15 3.74 2080 7380 (1995) 1200 (1967) 2490 1380 1560 1700 1740 2080 2940 3080 3550 5210
2026-04-24 09:15 3.73 2040 7380 (1995) 1200 (1967) 2490 1380 1560 1700 1740 2080 2940 3080 3550 5210
2026-04-24 08:15 3.72 1990 7380 (1995) 1200 (1967) 2490 1380 1560 1700 1740 2080 2940 3080 3550 5210
2026-04-24 07:15 3.71 1950 7380 (1995) 1200 (1967) 2490 1380 1560 1700 1740 2080 2940 3080 3550 5210
2026-04-24 06:15 3.67 1780 7380 (1995) 1200 (1967) 2490 1380 1560 1700 1740 2080 2940 3080 3550 5210
2026-04-24 05:15 3.66 1740 7380 (1995) 1200 (1967) 2490 1380 1560 1700 1740 2080 2940 3080 3550 5210
2026-04-24 04:15 3.65 1710 7380 (1995) 1200 (1967) 2490 1380 1560 1700 1740 2080 2940 3080 3550 5210
2026-04-24 03:15 3.65 1710 7380 (1995) 1200 (1967) 2490 1380 1560 1700 1740 2080 2940 3080 3550 5210
2026-04-24 02:15 3.67 1780 7380 (1995) 1200 (1967) 2490 1380 1560 1700 1740 2080 2940 3080 3550 5210
2026-04-24 01:15 3.68 1820 7380 (1995) 1200 (1967) 2490 1380 1560 1700 1740 2080 2940 3080 3550 5210
2026-04-24 00:15 3.71 1950 7380 (1995) 1200 (1967) 2490 1380 1560 1700 1740 2080 2940 3080 3550 5210
2026-04-23 23:15 3.71 1950 7380 (1995) 1200 (1967) 2490 1380 1560 1700 1740 2080 2940 3080 3550 5210
2026-04-23 22:15 3.71 1950 8120 (1995) 1290 (1982) 2580 1410 1520 1720 1770 2110 3110 3260 3680 6160
2026-04-23 21:15 3.70 1910 8120 (1995) 1290 (1982) 2580 1410 1520 1720 1770 2110 3110 3260 3680 6160
2026-04-23 20:15 3.71 1950 8120 (1995) 1290 (1982) 2580 1410 1520 1720 1770 2110 3110 3260 3680 6160
2026-04-23 19:15 3.72 1990 8120 (1995) 1290 (1982) 2580 1410 1520 1720 1770 2110 3110 3260 3680 6160
2026-04-23 18:15 3.73 2040 8120 (1995) 1290 (1982) 2580 1410 1520 1720 1770 2110 3110 3260 3680 6160
2026-04-23 17:15 3.75 2130 8120 (1995) 1290 (1982) 2580 1410 1520 1720 1770 2110 3110 3260 3680 6160
2026-04-23 16:15 3.77 2220 8120 (1995) 1290 (1982) 2580 1410 1520 1720 1770 2110 3110 3260 3680 6160
2026-04-23 15:15 3.77 2220 8120 (1995) 1290 (1982) 2580 1410 1520 1720 1770 2110 3110 3260 3680 6160
2026-04-23 14:15 3.77 2220 8120 (1995) 1290 (1982) 2580 1410 1520 1720 1770 2110 3110 3260 3680 6160
2026-04-23 13:15 3.79 2320 8120 (1995) 1290 (1982) 2580 1410 1520 1720 1770 2110 3110 3260 3680 6160
2026-04-23 12:15 3.80 2370 8120 (1995) 1290 (1982) 2580 1410 1520 1720 1770 2110 3110 3260 3680 6160
2026-04-23 11:15 3.80 2370 8120 (1995) 1290 (1982) 2580 1410 1520 1720 1770 2110 3110 3260 3680 6160
2026-04-23 10:15 3.82 2470 8120 (1995) 1290 (1982) 2580 1410 1520 1720 1770 2110 3110 3260 3680 6160
2026-04-23 09:15 3.84 2580 8120 (1995) 1290 (1982) 2580 1410 1520 1720 1770 2110 3110 3260 3680 6160
2026-04-23 08:15 3.86 2690 8120 (1995) 1290 (1982) 2580 1410 1520 1720 1770 2110 3110 3260 3680 6160
2026-04-23 07:15 3.86 2690 8120 (1995) 1290 (1982) 2580 1410 1520 1720 1770 2110 3110 3260 3680 6160
2026-04-23 06:15 3.87 2750 8120 (1995) 1290 (1982) 2580 1410 1520 1720 1770 2110 3110 3260 3680 6160
2026-04-23 05:15 3.89 2860 8120 (1995) 1290 (1982) 2580 1410 1520 1720 1770 2110 3110 3260 3680 6160
2026-04-23 04:15 3.89 2860 8120 (1995) 1290 (1982) 2580 1410 1520 1720 1770 2110 3110 3260 3680 6160
2026-04-23 03:15 3.89 2860 8120 (1995) 1290 (1982) 2580 1410 1520 1720 1770 2110 3110 3260 3680 6160
2026-04-23 02:15 3.90 2920 8120 (1995) 1290 (1982) 2580 1410 1520 1720 1770 2110 3110 3260 3680 6160
2026-04-23 01:15 3.89 2860 8120 (1995) 1290 (1982) 2580 1410 1520 1720 1770 2110 3110 3260 3680 6160
2026-04-23 00:15 3.90 2920 8120 (1995) 1290 (1982) 2580 1410 1520 1720 1770 2110 3110 3260 3680 6160
2026-04-22 23:15 3.91 2980 8120 (1995) 1290 (1982) 2580 1410 1520 1720 1770 2110 3110 3260 3680 6160
2026-04-22 22:15 3.90 2920 7560 (1995) 1190 (1939) 2500 1330 1410 1700 1730 2200 2970 3140 3850 4460
2026-04-22 21:15 3.91 2980 7560 (1995) 1190 (1939) 2500 1330 1410 1700 1730 2200 2970 3140 3850 4460
2026-04-22 20:15 3.91 2980 7560 (1995) 1190 (1939) 2500 1330 1410 1700 1730 2200 2970 3140 3850 4460
2026-04-22 19:15 3.91 2980 7560 (1995) 1190 (1939) 2500 1330 1410 1700 1730 2200 2970 3140 3850 4460
2026-04-22 18:15 3.90 2920 7560 (1995) 1190 (1939) 2500 1330 1410 1700 1730 2200 2970 3140 3850 4460
2026-04-22 17:15 3.88 2800 7560 (1995) 1190 (1939) 2500 1330 1410 1700 1730 2200 2970 3140 3850 4460
2026-04-22 16:15 3.84 2580 7560 (1995) 1190 (1939) 2500 1330 1410 1700 1730 2200 2970 3140 3850 4460
2026-04-22 15:15 3.79 2320 7560 (1995) 1190 (1939) 2500 1330 1410 1700 1730 2200 2970 3140 3850 4460
2026-04-22 14:15 3.78 2270 7560 (1995) 1190 (1939) 2500 1330 1410 1700 1730 2200 2970 3140 3850 4460
2026-04-22 13:15 3.78 2270 7560 (1995) 1190 (1939) 2500 1330 1410 1700 1730 2200 2970 3140 3850 4460
2026-04-22 12:15 3.77 2220 7560 (1995) 1190 (1939) 2500 1330 1410 1700 1730 2200 2970 3140 3850 4460
2026-04-22 11:15 3.75 2130 7560 (1995) 1190 (1939) 2500 1330 1410 1700 1730 2200 2970 3140 3850 4460
2026-04-22 10:15 3.72 1990 7560 (1995) 1190 (1939) 2500 1330 1410 1700 1730 2200 2970 3140 3850 4460
2026-04-22 09:15 3.69 1870 7560 (1995) 1190 (1939) 2500 1330 1410 1700 1730 2200 2970 3140 3850 4460
2026-04-22 08:15 3.66 1740 7560 (1995) 1190 (1939) 2500 1330 1410 1700 1730 2200 2970 3140 3850 4460
2026-04-22 07:15 3.66 1740 7560 (1995) 1190 (1939) 2500 1330 1410 1700 1730 2200 2970 3140 3850 4460
2026-04-22 06:15 3.66 1740 7560 (1995) 1190 (1939) 2500 1330 1410 1700 1730 2200 2970 3140 3850 4460
2026-04-22 05:15 3.66 1740 7560 (1995) 1190 (1939) 2500 1330 1410 1700 1730 2200 2970 3140 3850 4460
2026-04-22 04:15 3.66 1740 7560 (1995) 1190 (1939) 2500 1330 1410 1700 1730 2200 2970 3140 3850 4460
2026-04-22 03:15 3.65 1710 7560 (1995) 1190 (1939) 2500 1330 1410 1700 1730 2200 2970 3140 3850 4460
2026-04-22 02:15 3.65 1710 7560 (1995) 1190 (1939) 2500 1330 1410 1700 1730 2200 2970 3140 3850 4460
2026-04-22 01:15 3.65 1710 7560 (1995) 1190 (1939) 2500 1330 1410 1700 1730 2200 2970 3140 3850 4460
2026-04-22 00:15 3.67 1780 7560 (1995) 1190 (1939) 2500 1330 1410 1700 1730 2200 2970 3140 3850 4460
2026-04-21 23:15 3.67 1780 7560 (1995) 1190 (1939) 2500 1330 1410 1700 1730 2200 2970 3140 3850 4460
2026-04-21 22:15 3.68 1820 7390 (1995) 493 (2007) 2450 1300 1500 1700 1790 2190 2920 3050 3810 4180
2026-04-21 21:15 3.70 1910 7390 (1995) 493 (2007) 2450 1300 1500 1700 1790 2190 2920 3050 3810 4180
2026-04-21 20:15 3.72 1990 7390 (1995) 493 (2007) 2450 1300 1500 1700 1790 2190 2920 3050 3810 4180
2026-04-21 19:15 3.74 2080 7390 (1995) 493 (2007) 2450 1300 1500 1700 1790 2190 2920 3050 3810 4180
2026-04-21 18:15 3.76 2170 7390 (1995) 493 (2007) 2450 1300 1500 1700 1790 2190 2920 3050 3810 4180
2026-04-21 17:15 3.76 2170 7390 (1995) 493 (2007) 2450 1300 1500 1700 1790 2190 2920 3050 3810 4180
2026-04-21 16:15 3.76 2170 7390 (1995) 493 (2007) 2450 1300 1500 1700 1790 2190 2920 3050 3810 4180
2026-04-21 15:15 3.76 2170 7390 (1995) 493 (2007) 2450 1300 1500 1700 1790 2190 2920 3050 3810 4180
2026-04-21 14:15 3.76 2170 7390 (1995) 493 (2007) 2450 1300 1500 1700 1790 2190 2920 3050 3810 4180
2026-04-21 13:15 3.78 2270 7390 (1995) 493 (2007) 2450 1300 1500 1700 1790 2190 2920 3050 3810 4180
2026-04-21 12:15 3.77 2220 7390 (1995) 493 (2007) 2450 1300 1500 1700 1790 2190 2920 3050 3810 4180
2026-04-21 11:15 3.75 2130 7390 (1995) 493 (2007) 2450 1300 1500 1700 1790 2190 2920 3050 3810 4180
2026-04-21 10:15 3.73 2040 7390 (1995) 493 (2007) 2450 1300 1500 1700 1790 2190 2920 3050 3810 4180
2026-04-21 09:15 3.72 1990 7390 (1995) 493 (2007) 2450 1300 1500 1700 1790 2190 2920 3050 3810 4180
2026-04-21 08:15 3.71 1950 7390 (1995) 493 (2007) 2450 1300 1500 1700 1790 2190 2920 3050 3810 4180
2026-04-21 07:15 3.70 1910 7390 (1995) 493 (2007) 2450 1300 1500 1700 1790 2190 2920 3050 3810 4180
2026-04-21 06:15 3.70 1910 7390 (1995) 493 (2007) 2450 1300 1500 1700 1790 2190 2920 3050 3810 4180
2026-04-21 05:15 3.70 1910 7390 (1995) 493 (2007) 2450 1300 1500 1700 1790 2190 2920 3050 3810 4180
2026-04-21 04:15 3.70 1910 7390 (1995) 493 (2007) 2450 1300 1500 1700 1790 2190 2920 3050 3810 4180
2026-04-21 03:15 3.68 1820 7390 (1995) 493 (2007) 2450 1300 1500 1700 1790 2190 2920 3050 3810 4180
2026-04-21 02:15 3.68 1820 7390 (1995) 493 (2007) 2450 1300 1500 1700 1790 2190 2920 3050 3810 4180
2026-04-21 01:15 3.68 1820 7390 (1995) 493 (2007) 2450 1300 1500 1700 1790 2190 2920 3050 3810 4180
2026-04-21 00:15 3.69 1870 7390 (1995) 493 (2007) 2450 1300 1500 1700 1790 2190 2920 3050 3810 4180
2026-04-20 23:15 3.70 1910 7390 (1995) 493 (2007) 2450 1300 1500 1700 1790 2190 2920 3050 3810 4180
2026-04-20 22:15 3.71 1950 6790 (2011) 799 (2007) 2490 1390 1520 1740 1800 2250 2960 3100 3800 4280
2026-04-20 21:15 3.73 2040 6790 (2011) 799 (2007) 2490 1390 1520 1740 1800 2250 2960 3100 3800 4280
2026-04-20 20:15 3.74 2080 6790 (2011) 799 (2007) 2490 1390 1520 1740 1800 2250 2960 3100 3800 4280
2026-04-20 19:15 3.76 2170 6790 (2011) 799 (2007) 2490 1390 1520 1740 1800 2250 2960 3100 3800 4280
2026-04-20 18:15 3.77 2220 6790 (2011) 799 (2007) 2490 1390 1520 1740 1800 2250 2960 3100 3800 4280
2026-04-20 17:15 3.77 2220 6790 (2011) 799 (2007) 2490 1390 1520 1740 1800 2250 2960 3100 3800 4280
2026-04-20 16:15 3.77 2220 6790 (2011) 799 (2007) 2490 1390 1520 1740 1800 2250 2960 3100 3800 4280
2026-04-20 15:15 3.77 2220 6790 (2011) 799 (2007) 2490 1390 1520 1740 1800 2250 2960 3100 3800 4280
2026-04-20 14:15 3.76 2170 6790 (2011) 799 (2007) 2490 1390 1520 1740 1800 2250 2960 3100 3800 4280
2026-04-20 13:15 3.77 2220 6790 (2011) 799 (2007) 2490 1390 1520 1740 1800 2250 2960 3100 3800 4280
2026-04-20 12:15 3.76 2170 6790 (2011) 799 (2007) 2490 1390 1520 1740 1800 2250 2960 3100 3800 4280
2026-04-20 11:15 3.76 2170 6790 (2011) 799 (2007) 2490 1390 1520 1740 1800 2250 2960 3100 3800 4280
2026-04-20 10:15 3.75 2130 6790 (2011) 799 (2007) 2490 1390 1520 1740 1800 2250 2960 3100 3800 4280
2026-04-20 09:15 3.74 2080 6790 (2011) 799 (2007) 2490 1390 1520 1740 1800 2250 2960 3100 3800 4280
2026-04-20 08:15 3.74 2080 6790 (2011) 799 (2007) 2490 1390 1520 1740 1800 2250 2960 3100 3800 4280
2026-04-20 07:15 3.73 2040 6790 (2011) 799 (2007) 2490 1390 1520 1740 1800 2250 2960 3100 3800 4280
2026-04-20 06:15 3.73 2040 6790 (2011) 799 (2007) 2490 1390 1520 1740 1800 2250 2960 3100 3800 4280
2026-04-20 05:15 3.73 2040 6790 (2011) 799 (2007) 2490 1390 1520 1740 1800 2250 2960 3100 3800 4280
2026-04-20 04:15 3.74 2080 6790 (2011) 799 (2007) 2490 1390 1520 1740 1800 2250 2960 3100 3800 4280
2026-04-20 03:15 3.74 2080 6790 (2011) 799 (2007) 2490 1390 1520 1740 1800 2250 2960 3100 3800 4280
2026-04-20 02:15 3.73 2040 6790 (2011) 799 (2007) 2490 1390 1520 1740 1800 2250 2960 3100 3800 4280
2026-04-20 01:15 3.73 2040 6790 (2011) 799 (2007) 2490 1390 1520 1740 1800 2250 2960 3100 3800 4280
2026-04-20 00:15 3.72 1990 6790 (2011) 799 (2007) 2490 1390 1520 1740 1800 2250 2960 3100 3800 4280
2026-04-19 23:15 3.73 2040 6790 (2011) 799 (2007) 2490 1390 1520 1740 1800 2250 2960 3100 3800 4280
2026-04-19 22:15 3.74 2080 7200 (1995) 688 (2007) 2490 1240 1520 1700 1750 2110 3050 3270 4170 4620
2026-04-19 21:15 3.74 2080 7200 (1995) 688 (2007) 2490 1240 1520 1700 1750 2110 3050 3270 4170 4620
2026-04-19 20:15 3.75 2130 7200 (1995) 688 (2007) 2490 1240 1520 1700 1750 2110 3050 3270 4170 4620
2026-04-19 19:15 3.76 2170 7200 (1995) 688 (2007) 2490 1240 1520 1700 1750 2110 3050 3270 4170 4620
2026-04-19 18:15 3.76 2170 7200 (1995) 688 (2007) 2490 1240 1520 1700 1750 2110 3050 3270 4170 4620
2026-04-19 17:15 3.77 2220 7200 (1995) 688 (2007) 2490 1240 1520 1700 1750 2110 3050 3270 4170 4620
2026-04-19 16:15 3.79 2320 7200 (1995) 688 (2007) 2490 1240 1520 1700 1750 2110 3050 3270 4170 4620
2026-04-19 15:15 3.80 2370 7200 (1995) 688 (2007) 2490 1240 1520 1700 1750 2110 3050 3270 4170 4620
2026-04-19 14:15 3.80 2370 7200 (1995) 688 (2007) 2490 1240 1520 1700 1750 2110 3050 3270 4170 4620
2026-04-19 13:15 3.81 2420 7200 (1995) 688 (2007) 2490 1240 1520 1700 1750 2110 3050 3270 4170 4620
2026-04-19 12:15 3.82 2470 7200 (1995) 688 (2007) 2490 1240 1520 1700 1750 2110 3050 3270 4170 4620
2026-04-19 11:15 3.82 2470 7200 (1995) 688 (2007) 2490 1240 1520 1700 1750 2110 3050 3270 4170 4620
2026-04-19 10:15 3.82 2470 7200 (1995) 688 (2007) 2490 1240 1520 1700 1750 2110 3050 3270 4170 4620
2026-04-19 09:15 3.82 2470 7200 (1995) 688 (2007) 2490 1240 1520 1700 1750 2110 3050 3270 4170 4620
2026-04-19 08:15 3.81 2420 7200 (1995) 688 (2007) 2490 1240 1520 1700 1750 2110 3050 3270 4170 4620
2026-04-19 07:15 3.79 2320 7200 (1995) 688 (2007) 2490 1240 1520 1700 1750 2110 3050 3270 4170 4620
2026-04-19 06:15 3.78 2270 7200 (1995) 688 (2007) 2490 1240 1520 1700 1750 2110 3050 3270 4170 4620
2026-04-19 05:15 3.79 2320 7200 (1995) 688 (2007) 2490 1240 1520 1700 1750 2110 3050 3270 4170 4620
2026-04-19 04:15 3.79 2320 7200 (1995) 688 (2007) 2490 1240 1520 1700 1750 2110 3050 3270 4170 4620
2026-04-19 03:15 3.79 2320 7200 (1995) 688 (2007) 2490 1240 1520 1700 1750 2110 3050 3270 4170 4620
2026-04-19 02:15 3.78 2270 7200 (1995) 688 (2007) 2490 1240 1520 1700 1750 2110 3050 3270 4170 4620
2026-04-19 01:15 3.80 2370 7200 (1995) 688 (2007) 2490 1240 1520 1700 1750 2110 3050 3270 4170 4620
2026-04-19 00:15 3.81 2420 7200 (1995) 688 (2007) 2490 1240 1520 1700 1750 2110 3050 3270 4170 4620
2026-04-18 23:15 3.81 2420 7200 (1995) 688 (2007) 2490 1240 1520 1700 1750 2110 3050 3270 4170 4620
2026-04-18 22:15 3.81 2420 7170 (1995) 693 (2007) 2520 1200 1500 1650 1770 2100 3010 3220 3850 5770
2026-04-18 21:15 3.84 2580 7170 (1995) 693 (2007) 2520 1200 1500 1650 1770 2100 3010 3220 3850 5770
2026-04-18 20:15 3.85 2630 7170 (1995) 693 (2007) 2520 1200 1500 1650 1770 2100 3010 3220 3850 5770
2026-04-18 19:15 3.85 2630 7170 (1995) 693 (2007) 2520 1200 1500 1650 1770 2100 3010 3220 3850 5770
2026-04-18 18:15 3.88 2800 7170 (1995) 693 (2007) 2520 1200 1500 1650 1770 2100 3010 3220 3850 5770
2026-04-18 17:15 3.89 2860 7170 (1995) 693 (2007) 2520 1200 1500 1650 1770 2100 3010 3220 3850 5770
2026-04-18 16:15 3.91 2980 7170 (1995) 693 (2007) 2520 1200 1500 1650 1770 2100 3010 3220 3850 5770
2026-04-18 15:15 3.94 3170 7170 (1995) 693 (2007) 2520 1200 1500 1650 1770 2100 3010 3220 3850 5770
2026-04-18 14:15 3.94 3170 7170 (1995) 693 (2007) 2520 1200 1500 1650 1770 2100 3010 3220 3850 5770
2026-04-18 13:15 3.92 3050 7170 (1995) 693 (2007) 2520 1200 1500 1650 1770 2100 3010 3220 3850 5770
2026-04-18 12:15 3.93 3110 7170 (1995) 693 (2007) 2520 1200 1500 1650 1770 2100 3010 3220 3850 5770
2026-04-18 11:15 3.93 3110 7170 (1995) 693 (2007) 2520 1200 1500 1650 1770 2100 3010 3220 3850 5770
2026-04-18 10:15 3.92 3050 7170 (1995) 693 (2007) 2520 1200 1500 1650 1770 2100 3010 3220 3850 5770
2026-04-18 09:15 3.88 2800 7170 (1995) 693 (2007) 2520 1200 1500 1650 1770 2100 3010 3220 3850 5770
2026-04-18 08:15 3.88 2800 7170 (1995) 693 (2007) 2520 1200 1500 1650 1770 2100 3010 3220 3850 5770
2026-04-18 07:15 3.88 2800 7170 (1995) 693 (2007) 2520 1200 1500 1650 1770 2100 3010 3220 3850 5770
2026-04-18 06:15 3.89 2860 7170 (1995) 693 (2007) 2520 1200 1500 1650 1770 2100 3010 3220 3850 5770
2026-04-18 05:15 3.90 2920 7170 (1995) 693 (2007) 2520 1200 1500 1650 1770 2100 3010 3220 3850 5770
2026-04-18 04:15 3.89 2860 7170 (1995) 693 (2007) 2520 1200 1500 1650 1770 2100 3010 3220 3850 5770
2026-04-18 03:15 3.89 2860 7170 (1995) 693 (2007) 2520 1200 1500 1650 1770 2100 3010 3220 3850 5770
2026-04-18 02:15 3.90 2920 7170 (1995) 693 (2007) 2520 1200 1500 1650 1770 2100 3010 3220 3850 5770
2026-04-18 01:15 3.91 2980 7170 (1995) 693 (2007) 2520 1200 1500 1650 1770 2100 3010 3220 3850 5770
2026-04-18 00:15 3.93 3110 7170 (1995) 693 (2007) 2520 1200 1500 1650 1770 2100 3010 3220 3850 5770
2026-04-17 23:15 3.96 3300 7170 (1995) 693 (2007) 2520 1200 1500 1650 1770 2100 3010 3220 3850 5770
2026-04-17 22:15 3.97 3370 6110 (2024) 804 (2007) 2500 1330 1440 1700 1800 2220 2810 3090 4200 5490
2026-04-17 21:15 3.97 3370 6110 (2024) 804 (2007) 2500 1330 1440 1700 1800 2220 2810 3090 4200 5490
2026-04-17 20:15 3.97 3370 6110 (2024) 804 (2007) 2500 1330 1440 1700 1800 2220 2810 3090 4200 5490
2026-04-17 19:15 3.98 3440 6110 (2024) 804 (2007) 2500 1330 1440 1700 1800 2220 2810 3090 4200 5490
2026-04-17 18:15 3.97 3370 6110 (2024) 804 (2007) 2500 1330 1440 1700 1800 2220 2810 3090 4200 5490
2026-04-17 17:15 3.98 3440 6110 (2024) 804 (2007) 2500 1330 1440 1700 1800 2220 2810 3090 4200 5490
2026-04-17 16:15 3.99 3510 6110 (2024) 804 (2007) 2500 1330 1440 1700 1800 2220 2810 3090 4200 5490
2026-04-17 15:15 4.00 3580 6110 (2024) 804 (2007) 2500 1330 1440 1700 1800 2220 2810 3090 4200 5490
2026-04-17 14:15 3.99 3510 6110 (2024) 804 (2007) 2500 1330 1440 1700 1800 2220 2810 3090 4200 5490
2026-04-17 13:15 3.98 3440 6110 (2024) 804 (2007) 2500 1330 1440 1700 1800 2220 2810 3090 4200 5490
2026-04-17 12:15 4.00 3580 6110 (2024) 804 (2007) 2500 1330 1440 1700 1800 2220 2810 3090 4200 5490
2026-04-17 11:15 3.97 3370 6110 (2024) 804 (2007) 2500 1330 1440 1700 1800 2220 2810 3090 4200 5490
2026-04-17 10:15 3.94 3170 6110 (2024) 804 (2007) 2500 1330 1440 1700 1800 2220 2810 3090 4200 5490
2026-04-17 09:15 3.90 2920 6110 (2024) 804 (2007) 2500 1330 1440 1700 1800 2220 2810 3090 4200 5490
2026-04-17 08:15 3.85 2630 6110 (2024) 804 (2007) 2500 1330 1440 1700 1800 2220 2810 3090 4200 5490
2026-04-17 07:15 3.86 2690 6110 (2024) 804 (2007) 2500 1330 1440 1700 1800 2220 2810 3090 4200 5490
2026-04-17 06:15 3.87 2750 6110 (2024) 804 (2007) 2500 1330 1440 1700 1800 2220 2810 3090 4200 5490
2026-04-17 05:15 3.90 2920 6110 (2024) 804 (2007) 2500 1330 1440 1700 1800 2220 2810 3090 4200 5490
2026-04-17 04:15 3.92 3050 6110 (2024) 804 (2007) 2500 1330 1440 1700 1800 2220 2810 3090 4200 5490
2026-04-17 03:15 3.91 2980 6110 (2024) 804 (2007) 2500 1330 1440 1700 1800 2220 2810 3090 4200 5490
2026-04-17 02:15 3.92 3050 6110 (2024) 804 (2007) 2500 1330 1440 1700 1800 2220 2810 3090 4200 5490
2026-04-17 01:15 3.94 3170 6110 (2024) 804 (2007) 2500 1330 1440 1700 1800 2220 2810 3090 4200 5490
2026-04-17 00:15 3.97 3370 6110 (2024) 804 (2007) 2500 1330 1440 1700 1800 2220 2810 3090 4200 5490
2026-04-16 23:15 3.98 3440 6110 (2024) 804 (2007) 2500 1330 1440 1700 1800 2220 2810 3090 4200 5490
2026-04-16 22:15 3.99 3510 5940 (1995) 1030 (2007) 2530 1450 1540 1690 1810 2310 2890 3160 4330 5130
2026-04-16 21:15 4.02 3730 5940 (1995) 1030 (2007) 2530 1450 1540 1690 1810 2310 2890 3160 4330 5130
2026-04-16 20:15 4.03 3800 5940 (1995) 1030 (2007) 2530 1450 1540 1690 1810 2310 2890 3160 4330 5130
2026-04-16 19:15 4.02 3730 5940 (1995) 1030 (2007) 2530 1450 1540 1690 1810 2310 2890 3160 4330 5130
2026-04-16 18:15 4.02 3730 5940 (1995) 1030 (2007) 2530 1450 1540 1690 1810 2310 2890 3160 4330 5130
2026-04-16 17:15 4.01 3650 5940 (1995) 1030 (2007) 2530 1450 1540 1690 1810 2310 2890 3160 4330 5130
2026-04-16 16:15 4.00 3580 5940 (1995) 1030 (2007) 2530 1450 1540 1690 1810 2310 2890 3160 4330 5130
2026-04-16 15:15 3.92 3050 5940 (1995) 1030 (2007) 2530 1450 1540 1690 1810 2310 2890 3160 4330 5130
2026-04-16 14:15 3.87 2750 5940 (1995) 1030 (2007) 2530 1450 1540 1690 1810 2310 2890 3160 4330 5130
2026-04-16 13:15 3.85 2630 5940 (1995) 1030 (2007) 2530 1450 1540 1690 1810 2310 2890 3160 4330 5130
2026-04-16 12:15 3.79 2320 5940 (1995) 1030 (2007) 2530 1450 1540 1690 1810 2310 2890 3160 4330 5130
2026-04-16 11:15 3.77 2220 5940 (1995) 1030 (2007) 2530 1450 1540 1690 1810 2310 2890 3160 4330 5130
2026-04-16 10:15 3.78 2270 5940 (1995) 1030 (2007) 2530 1450 1540 1690 1810 2310 2890 3160 4330 5130
2026-04-16 09:15 3.77 2220 5940 (1995) 1030 (2007) 2530 1450 1540 1690 1810 2310 2890 3160 4330 5130
2026-04-16 08:15 3.69 1870 5940 (1995) 1030 (2007) 2530 1450 1540 1690 1810 2310 2890 3160 4330 5130
2026-04-16 07:15 3.70 1910 5940 (1995) 1030 (2007) 2530 1450 1540 1690 1810 2310 2890 3160 4330 5130
2026-04-16 06:15 3.71 1950 5940 (1995) 1030 (2007) 2530 1450 1540 1690 1810 2310 2890 3160 4330 5130
2026-04-16 05:15 3.70 1910 5940 (1995) 1030 (2007) 2530 1450 1540 1690 1810 2310 2890 3160 4330 5130
2026-04-16 04:15 3.73 2040 5940 (1995) 1030 (2007) 2530 1450 1540 1690 1810 2310 2890 3160 4330 5130
2026-04-16 03:15 3.76 2170 5940 (1995) 1030 (2007) 2530 1450 1540 1690 1810 2310 2890 3160 4330 5130
2026-04-16 02:15 3.78 2270 5940 (1995) 1030 (2007) 2530 1450 1540 1690 1810 2310 2890 3160 4330 5130
2026-04-16 01:15 3.80 2370 5940 (1995) 1030 (2007) 2530 1450 1540 1690 1810 2310 2890 3160 4330 5130
2026-04-16 00:15 3.80 2370 5940 (1995) 1030 (2007) 2530 1450 1540 1690 1810 2310 2890 3160 4330 5130
2026-04-15 23:15 3.82 2470 5940 (1995) 1030 (2007) 2530 1450 1540 1690 1810 2310 2890 3160 4330 5130
2026-04-15 22:15 3.84 2580 6110 (1995) 908 (2007) 2540 1290 1530 1660 1740 2250 3190 3370 3940 5040
2026-04-15 21:15 3.87 2750 6110 (1995) 908 (2007) 2540 1290 1530 1660 1740 2250 3190 3370 3940 5040
2026-04-15 20:15 3.91 2980 6110 (1995) 908 (2007) 2540 1290 1530 1660 1740 2250 3190 3370 3940 5040
2026-04-15 19:15 3.92 3050 6110 (1995) 908 (2007) 2540 1290 1530 1660 1740 2250 3190 3370 3940 5040
2026-04-15 18:15 3.91 2980 6110 (1995) 908 (2007) 2540 1290 1530 1660 1740 2250 3190 3370 3940 5040
2026-04-15 17:15 3.91 2980 6110 (1995) 908 (2007) 2540 1290 1530 1660 1740 2250 3190 3370 3940 5040
2026-04-15 16:15 3.91 2980 6110 (1995) 908 (2007) 2540 1290 1530 1660 1740 2250 3190 3370 3940 5040
2026-04-15 15:15 3.92 3050 6110 (1995) 908 (2007) 2540 1290 1530 1660 1740 2250 3190 3370 3940 5040
2026-04-15 14:15 3.91 2980 6110 (1995) 908 (2007) 2540 1290 1530 1660 1740 2250 3190 3370 3940 5040
2026-04-15 13:15 3.93 3110 6110 (1995) 908 (2007) 2540 1290 1530 1660 1740 2250 3190 3370 3940 5040
2026-04-15 12:15 3.90 2920 6110 (1995) 908 (2007) 2540 1290 1530 1660 1740 2250 3190 3370 3940 5040
2026-04-15 11:15 3.89 2860 6110 (1995) 908 (2007) 2540 1290 1530 1660 1740 2250 3190 3370 3940 5040
2026-04-15 10:15 3.87 2750 6110 (1995) 908 (2007) 2540 1290 1530 1660 1740 2250 3190 3370 3940 5040
2026-04-15 09:15 3.85 2630 6110 (1995) 908 (2007) 2540 1290 1530 1660 1740 2250 3190 3370 3940 5040
2026-04-15 08:15 3.85 2630 6110 (1995) 908 (2007) 2540 1290 1530 1660 1740 2250 3190 3370 3940 5040
2026-04-15 07:15 3.84 2580 6110 (1995) 908 (2007) 2540 1290 1530 1660 1740 2250 3190 3370 3940 5040
2026-04-15 06:15 3.82 2470 6110 (1995) 908 (2007) 2540 1290 1530 1660 1740 2250 3190 3370 3940 5040
2026-04-15 05:15 3.82 2470 6110 (1995) 908 (2007) 2540 1290 1530 1660 1740 2250 3190 3370 3940 5040
2026-04-15 04:15 3.82 2470 6110 (1995) 908 (2007) 2540 1290 1530 1660 1740 2250 3190 3370 3940 5040
2026-04-15 03:15 3.82 2470 6110 (1995) 908 (2007) 2540 1290 1530 1660 1740 2250 3190 3370 3940 5040
2026-04-15 02:15 3.81 2420 6110 (1995) 908 (2007) 2540 1290 1530 1660 1740 2250 3190 3370 3940 5040
2026-04-15 01:15 3.80 2370 6110 (1995) 908 (2007) 2540 1290 1530 1660 1740 2250 3190 3370 3940 5040
2026-04-15 00:15 3.81 2420 6110 (1995) 908 (2007) 2540 1290 1530 1660 1740 2250 3190 3370 3940 5040
2026-04-14 23:15 3.81 2420 6110 (1995) 908 (2007) 2540 1290 1530 1660 1740 2250 3190 3370 3940 5040
2026-04-14 22:15 3.81 2420 5200 (1984) 838 (2007) 2460 1420 1490 1650 1700 2200 2920 3080 4040 4680
2026-04-14 21:15 3.82 2470 5200 (1984) 838 (2007) 2460 1420 1490 1650 1700 2200 2920 3080 4040 4680
2026-04-14 20:15 3.83 2530 5200 (1984) 838 (2007) 2460 1420 1490 1650 1700 2200 2920 3080 4040 4680
2026-04-14 19:15 3.83 2530 5200 (1984) 838 (2007) 2460 1420 1490 1650 1700 2200 2920 3080 4040 4680
2026-04-14 18:15 3.83 2530 5200 (1984) 838 (2007) 2460 1420 1490 1650 1700 2200 2920 3080 4040 4680
2026-04-14 17:15 3.85 2630 5200 (1984) 838 (2007) 2460 1420 1490 1650 1700 2200 2920 3080 4040 4680
2026-04-14 16:15 3.85 2630 5200 (1984) 838 (2007) 2460 1420 1490 1650 1700 2200 2920 3080 4040 4680
2026-04-14 15:15 3.85 2630 5200 (1984) 838 (2007) 2460 1420 1490 1650 1700 2200 2920 3080 4040 4680
2026-04-14 14:15 3.84 2580 5200 (1984) 838 (2007) 2460 1420 1490 1650 1700 2200 2920 3080 4040 4680
2026-04-14 13:15 3.83 2530 5200 (1984) 838 (2007) 2460 1420 1490 1650 1700 2200 2920 3080 4040 4680
2026-04-14 12:15 3.81 2420 5200 (1984) 838 (2007) 2460 1420 1490 1650 1700 2200 2920 3080 4040 4680
2026-04-14 11:15 3.79 2320 5200 (1984) 838 (2007) 2460 1420 1490 1650 1700 2200 2920 3080 4040 4680
2026-04-14 10:15 3.77 2220 5200 (1984) 838 (2007) 2460 1420 1490 1650 1700 2200 2920 3080 4040 4680
2026-04-14 09:15 3.77 2220 5200 (1984) 838 (2007) 2460 1420 1490 1650 1700 2200 2920 3080 4040 4680
2026-04-14 08:15 3.78 2270 5200 (1984) 838 (2007) 2460 1420 1490 1650 1700 2200 2920 3080 4040 4680
2026-04-14 07:15 3.78 2270 5200 (1984) 838 (2007) 2460 1420 1490 1650 1700 2200 2920 3080 4040 4680
2026-04-14 06:15 3.78 2270 5200 (1984) 838 (2007) 2460 1420 1490 1650 1700 2200 2920 3080 4040 4680
2026-04-14 05:15 3.80 2370 5200 (1984) 838 (2007) 2460 1420 1490 1650 1700 2200 2920 3080 4040 4680
2026-04-14 04:15 3.80 2370 5200 (1984) 838 (2007) 2460 1420 1490 1650 1700 2200 2920 3080 4040 4680
2026-04-14 03:15 3.80 2370 5200 (1984) 838 (2007) 2460 1420 1490 1650 1700 2200 2920 3080 4040 4680
2026-04-14 02:15 3.80 2370 5200 (1984) 838 (2007) 2460 1420 1490 1650 1700 2200 2920 3080 4040 4680
2026-04-14 01:15 3.80 2370 5200 (1984) 838 (2007) 2460 1420 1490 1650 1700 2200 2920 3080 4040 4680
2026-04-14 00:15 3.78 2270 5200 (1984) 838 (2007) 2460 1420 1490 1650 1700 2200 2920 3080 4040 4680
2026-04-13 23:15 3.78 2270 5200 (1984) 838 (2007) 2460 1420 1490 1650 1700 2200 2920 3080 4040 4680
2026-04-13 22:15 3.78 2270 5150 (1984) 677 (2007) 2450 1280 1500 1620 1650 2380 2860 3100 3640 4500
2026-04-13 21:15 3.79 2320 5150 (1984) 677 (2007) 2450 1280 1500 1620 1650 2380 2860 3100 3640 4500
2026-04-13 20:15 3.82 2470 5150 (1984) 677 (2007) 2450 1280 1500 1620 1650 2380 2860 3100 3640 4500
2026-04-13 19:15 3.84 2580 5150 (1984) 677 (2007) 2450 1280 1500 1620 1650 2380 2860 3100 3640 4500
2026-04-13 18:15 3.85 2630 5150 (1984) 677 (2007) 2450 1280 1500 1620 1650 2380 2860 3100 3640 4500
2026-04-13 17:15 3.85 2630 5150 (1984) 677 (2007) 2450 1280 1500 1620 1650 2380 2860 3100 3640 4500
2026-04-13 16:15 3.86 2690 5150 (1984) 677 (2007) 2450 1280 1500 1620 1650 2380 2860 3100 3640 4500
2026-04-13 15:15 3.84 2580 5150 (1984) 677 (2007) 2450 1280 1500 1620 1650 2380 2860 3100 3640 4500
2026-04-13 14:15 3.83 2530 5150 (1984) 677 (2007) 2450 1280 1500 1620 1650 2380 2860 3100 3640 4500
2026-04-13 13:15 3.81 2420 5150 (1984) 677 (2007) 2450 1280 1500 1620 1650 2380 2860 3100 3640 4500
2026-04-13 12:15 3.80 2370 5150 (1984) 677 (2007) 2450 1280 1500 1620 1650 2380 2860 3100 3640 4500
2026-04-13 11:15 3.77 2220 5150 (1984) 677 (2007) 2450 1280 1500 1620 1650 2380 2860 3100 3640 4500
2026-04-13 10:15 3.73 2040 5150 (1984) 677 (2007) 2450 1280 1500 1620 1650 2380 2860 3100 3640 4500
2026-04-13 09:15 3.70 1910 5150 (1984) 677 (2007) 2450 1280 1500 1620 1650 2380 2860 3100 3640 4500
2026-04-13 08:15 3.68 1820 5150 (1984) 677 (2007) 2450 1280 1500 1620 1650 2380 2860 3100 3640 4500
2026-04-13 07:15 3.67 1780 5150 (1984) 677 (2007) 2450 1280 1500 1620 1650 2380 2860 3100 3640 4500
2026-04-13 06:15 3.67 1780 5150 (1984) 677 (2007) 2450 1280 1500 1620 1650 2380 2860 3100 3640 4500
2026-04-13 05:15 3.67 1780 5150 (1984) 677 (2007) 2450 1280 1500 1620 1650 2380 2860 3100 3640 4500
2026-04-13 04:15 3.66 1740 5150 (1984) 677 (2007) 2450 1280 1500 1620 1650 2380 2860 3100 3640 4500
2026-04-13 03:15 3.66 1740 5150 (1984) 677 (2007) 2450 1280 1500 1620 1650 2380 2860 3100 3640 4500
2026-04-13 02:15 3.68 1820 5150 (1984) 677 (2007) 2450 1280 1500 1620 1650 2380 2860 3100 3640 4500
2026-04-13 01:15 3.70 1910 5150 (1984) 677 (2007) 2450 1280 1500 1620 1650 2380 2860 3100 3640 4500
2026-04-13 00:15 3.71 1950 5150 (1984) 677 (2007) 2450 1280 1500 1620 1650 2380 2860 3100 3640 4500
2026-04-12 23:15 3.73 2040 5150 (1984) 677 (2007) 2450 1280 1500 1620 1650 2380 2860 3100 3640 4500
2026-04-12 22:15 3.75 2130 5440 (2001) 670 (2007) 2430 1350 1520 1700 1740 2320 2780 2920 3490 4500
2026-04-12 21:15 3.78 2270 5440 (2001) 670 (2007) 2430 1350 1520 1700 1740 2320 2780 2920 3490 4500
2026-04-12 20:15 3.80 2370 5440 (2001) 670 (2007) 2430 1350 1520 1700 1740 2320 2780 2920 3490 4500
2026-04-12 19:15 3.80 2370 5440 (2001) 670 (2007) 2430 1350 1520 1700 1740 2320 2780 2920 3490 4500
2026-04-12 18:15 3.80 2370 5440 (2001) 670 (2007) 2430 1350 1520 1700 1740 2320 2780 2920 3490 4500
2026-04-12 17:15 3.81 2420 5440 (2001) 670 (2007) 2430 1350 1520 1700 1740 2320 2780 2920 3490 4500
2026-04-12 16:15 3.82 2470 5440 (2001) 670 (2007) 2430 1350 1520 1700 1740 2320 2780 2920 3490 4500
2026-04-12 15:15 3.83 2530 5440 (2001) 670 (2007) 2430 1350 1520 1700 1740 2320 2780 2920 3490 4500
2026-04-12 14:15 3.84 2580 5440 (2001) 670 (2007) 2430 1350 1520 1700 1740 2320 2780 2920 3490 4500
2026-04-12 13:15 3.84 2580 5440 (2001) 670 (2007) 2430 1350 1520 1700 1740 2320 2780 2920 3490 4500
2026-04-12 12:15 3.84 2580 5440 (2001) 670 (2007) 2430 1350 1520 1700 1740 2320 2780 2920 3490 4500
2026-04-12 11:15 3.85 2630 5440 (2001) 670 (2007) 2430 1350 1520 1700 1740 2320 2780 2920 3490 4500
2026-04-12 10:15 3.84 2580 5440 (2001) 670 (2007) 2430 1350 1520 1700 1740 2320 2780 2920 3490 4500
2026-04-12 09:15 3.83 2530 5440 (2001) 670 (2007) 2430 1350 1520 1700 1740 2320 2780 2920 3490 4500
2026-04-12 08:15 3.80 2370 5440 (2001) 670 (2007) 2430 1350 1520 1700 1740 2320 2780 2920 3490 4500
2026-04-12 07:15 3.78 2270 5440 (2001) 670 (2007) 2430 1350 1520 1700 1740 2320 2780 2920 3490 4500
2026-04-12 06:15 3.76 2170 5440 (2001) 670 (2007) 2430 1350 1520 1700 1740 2320 2780 2920 3490 4500
2026-04-12 05:15 3.75 2130 5440 (2001) 670 (2007) 2430 1350 1520 1700 1740 2320 2780 2920 3490 4500
2026-04-12 04:15 3.75 2130 5440 (2001) 670 (2007) 2430 1350 1520 1700 1740 2320 2780 2920 3490 4500
2026-04-12 03:15 3.76 2170 5440 (2001) 670 (2007) 2430 1350 1520 1700 1740 2320 2780 2920 3490 4500
2026-04-12 02:15 3.75 2130 5440 (2001) 670 (2007) 2430 1350 1520 1700 1740 2320 2780 2920 3490 4500
2026-04-12 01:15 3.74 2080 5440 (2001) 670 (2007) 2430 1350 1520 1700 1740 2320 2780 2920 3490 4500
2026-04-12 00:15 3.75 2130 5440 (2001) 670 (2007) 2430 1350 1520 1700 1740 2320 2780 2920 3490 4500
2026-04-11 23:15 3.74 2080 5440 (2001) 670 (2007) 2430 1350 1520 1700 1740 2320 2780 2920 3490 4500
2026-04-11 22:15 3.72 1990 5640 (1999) 653 (2007) 2410 1290 1520 1750 1800 2110 2910 3100 3660 4630
2026-04-11 21:15 3.71 1950 5640 (1999) 653 (2007) 2410 1290 1520 1750 1800 2110 2910 3100 3660 4630
2026-04-11 20:15 3.71 1950 5640 (1999) 653 (2007) 2410 1290 1520 1750 1800 2110 2910 3100 3660 4630
2026-04-11 19:15 3.71 1950 5640 (1999) 653 (2007) 2410 1290 1520 1750 1800 2110 2910 3100 3660 4630
2026-04-11 18:15 3.69 1870 5640 (1999) 653 (2007) 2410 1290 1520 1750 1800 2110 2910 3100 3660 4630
2026-04-11 17:15 3.69 1870 5640 (1999) 653 (2007) 2410 1290 1520 1750 1800 2110 2910 3100 3660 4630
2026-04-11 16:15 3.70 1910 5640 (1999) 653 (2007) 2410 1290 1520 1750 1800 2110 2910 3100 3660 4630
2026-04-11 15:15 3.67 1780 5640 (1999) 653 (2007) 2410 1290 1520 1750 1800 2110 2910 3100 3660 4630
2026-04-11 14:15 3.66 1740 5640 (1999) 653 (2007) 2410 1290 1520 1750 1800 2110 2910 3100 3660 4630
2026-04-11 13:15 3.65 1710 5640 (1999) 653 (2007) 2410 1290 1520 1750 1800 2110 2910 3100 3660 4630
2026-04-11 12:15 3.63 1630 5640 (1999) 653 (2007) 2410 1290 1520 1750 1800 2110 2910 3100 3660 4630
2026-04-11 11:15 3.62 1590 5640 (1999) 653 (2007) 2410 1290 1520 1750 1800 2110 2910 3100 3660 4630
2026-04-11 10:15 3.61 1560 5640 (1999) 653 (2007) 2410 1290 1520 1750 1800 2110 2910 3100 3660 4630
2026-04-11 09:15 3.60 1520 5640 (1999) 653 (2007) 2410 1290 1520 1750 1800 2110 2910 3100 3660 4630
2026-04-11 08:15 3.58 1460 5640 (1999) 653 (2007) 2410 1290 1520 1750 1800 2110 2910 3100 3660 4630
2026-04-11 07:15 3.58 1460 5640 (1999) 653 (2007) 2410 1290 1520 1750 1800 2110 2910 3100 3660 4630
2026-04-11 06:15 3.57 1430 5640 (1999) 653 (2007) 2410 1290 1520 1750 1800 2110 2910 3100 3660 4630
2026-04-11 05:15 3.56 1400 5640 (1999) 653 (2007) 2410 1290 1520 1750 1800 2110 2910 3100 3660 4630
2026-04-11 04:15 3.56 1400 5640 (1999) 653 (2007) 2410 1290 1520 1750 1800 2110 2910 3100 3660 4630
2026-04-11 03:15 3.55 1370 5640 (1999) 653 (2007) 2410 1290 1520 1750 1800 2110 2910 3100 3660 4630
2026-04-11 02:15 3.58 1460 5640 (1999) 653 (2007) 2410 1290 1520 1750 1800 2110 2910 3100 3660 4630
2026-04-11 01:15 3.56 1400 5640 (1999) 653 (2007) 2410 1290 1520 1750 1800 2110 2910 3100 3660 4630
2026-04-11 00:15 3.55 1370 5640 (1999) 653 (2007) 2410 1290 1520 1750 1800 2110 2910 3100 3660 4630
2026-04-10 23:15 3.55 1370 5640 (1999) 653 (2007) 2410 1290 1520 1750 1800 2110 2910 3100 3660 4630
2026-04-10 22:15 3.57 1430 6150 (1984) 556 (2007) 2430 1300 1580 1790 1800 2210 2760 3010 4160 4580
2026-04-10 21:15 3.60 1520 6150 (1984) 556 (2007) 2430 1300 1580 1790 1800 2210 2760 3010 4160 4580
2026-04-10 20:15 3.62 1590 6150 (1984) 556 (2007) 2430 1300 1580 1790 1800 2210 2760 3010 4160 4580
2026-04-10 19:15 3.63 1630 6150 (1984) 556 (2007) 2430 1300 1580 1790 1800 2210 2760 3010 4160 4580
2026-04-10 18:15 3.63 1630 6150 (1984) 556 (2007) 2430 1300 1580 1790 1800 2210 2760 3010 4160 4580
2026-04-10 17:15 3.63 1630 6150 (1984) 556 (2007) 2430 1300 1580 1790 1800 2210 2760 3010 4160 4580
2026-04-10 16:15 3.63 1630 6150 (1984) 556 (2007) 2430 1300 1580 1790 1800 2210 2760 3010 4160 4580
2026-04-10 15:15 3.63 1630 6150 (1984) 556 (2007) 2430 1300 1580 1790 1800 2210 2760 3010 4160 4580
2026-04-10 14:15 3.63 1630 6150 (1984) 556 (2007) 2430 1300 1580 1790 1800 2210 2760 3010 4160 4580
2026-04-10 13:15 3.62 1590 6150 (1984) 556 (2007) 2430 1300 1580 1790 1800 2210 2760 3010 4160 4580
2026-04-10 12:15 3.59 1490 6150 (1984) 556 (2007) 2430 1300 1580 1790 1800 2210 2760 3010 4160 4580
2026-04-10 11:15 3.57 1430 6150 (1984) 556 (2007) 2430 1300 1580 1790 1800 2210 2760 3010 4160 4580
2026-04-10 10:15 3.53 1320 6150 (1984) 556 (2007) 2430 1300 1580 1790 1800 2210 2760 3010 4160 4580
2026-04-10 09:15 3.49 1210 6150 (1984) 556 (2007) 2430 1300 1580 1790 1800 2210 2760 3010 4160 4580
2026-04-10 08:15 3.46 1130 6150 (1984) 556 (2007) 2430 1300 1580 1790 1800 2210 2760 3010 4160 4580
2026-04-10 07:15 3.46 1130 6150 (1984) 556 (2007) 2430 1300 1580 1790 1800 2210 2760 3010 4160 4580
2026-04-10 06:15 3.46 1130 6150 (1984) 556 (2007) 2430 1300 1580 1790 1800 2210 2760 3010 4160 4580
2026-04-10 05:15 3.48 1180 6150 (1984) 556 (2007) 2430 1300 1580 1790 1800 2210 2760 3010 4160 4580
2026-04-10 04:15 3.48 1180 6150 (1984) 556 (2007) 2430 1300 1580 1790 1800 2210 2760 3010 4160 4580
2026-04-10 03:15 3.47 1160 6150 (1984) 556 (2007) 2430 1300 1580 1790 1800 2210 2760 3010 4160 4580
2026-04-10 02:15 3.48 1180 6150 (1984) 556 (2007) 2430 1300 1580 1790 1800 2210 2760 3010 4160 4580
2026-04-10 01:15 3.52 1290 6150 (1984) 556 (2007) 2430 1300 1580 1790 1800 2210 2760 3010 4160 4580
2026-04-10 00:15 3.56 1400 6150 (1984) 556 (2007) 2430 1300 1580 1790 1800 2210 2760 3010 4160 4580
2026-04-09 23:15 3.58 1460 6150 (1984) 556 (2007) 2430 1300 1580 1790 1800 2210 2760 3010 4160 4580

A total of 733 rows are displayed for years 1939 through 2025.